| time (UTC) | temp F | wind direction | speed MPH | gust MPH | rain 1hr in | rain 24hr in | rain mn in | humidity % | barometer mb |
| 20260510002047 | 74 | 167 | 2.0 | 7.0 | 0.00 | 0.00 | 0.00 | 70 | 1010.8 |
| 20260510001820 | 74 | 166 | 2.0 | 8.0 | 0.00 | 0.00 | 0.00 | 69 | 1010.8 |
| 20260510001728 | 74 | 191 | 3.0 | 8.0 | 0.00 | 0.00 | 0.00 | 69 | 1010.8 |
| 20260510001636 | 74 | 194 | 4.0 | 8.0 | 0.00 | 0.00 | 0.00 | 69 | 1010.6 |
| 20260510001526 | 74 | 211 | 5.0 | 8.0 | 0.00 | 0.00 | 0.00 | 69 | 1010.6 |
| 20260510001415 | 74 | 165 | 5.0 | 8.0 | 0.00 | 0.00 | 0.00 | 69 | 1010.7 |
| 20260510001322 | 74 | 186 | 5.0 | 8.0 | 0.00 | 0.00 | 0.00 | 68 | 1010.7 |
| 20260510001231 | 74 | 178 | 5.0 | 8.0 | 0.00 | 0.00 | 0.00 | 68 | 1010.7 |
| 20260510001118 | 74 | 165 | 4.0 | 7.0 | 0.00 | 0.00 | 0.00 | 67 | 1010.7 |
| 20260510001030 | 74 | 188 | 4.0 | 6.0 | 0.00 | 0.00 | 0.00 | 66 | 1010.7 |
| 20260510000917 | 74 | 178 | 2.0 | 5.0 | 0.00 | 0.00 | 0.00 | 66 | 1010.7 |
| 20260510000845 | 74 | 204 | 2.0 | 4.0 | 0.00 | 0.00 | 0.00 | 65 | 1010.7 |
| 20260510000733 | 74 | 203 | 1.0 | 3.0 | 0.00 | 0.00 | 0.00 | 64 | 1010.7 |
| 20260510000619 | 74 | 203 | 1.0 | 3.0 | 0.00 | 0.00 | 0.00 | 65 | 1010.7 |
| 20260510000554 | 74 | 203 | 1.0 | 3.0 | 0.00 | 0.00 | 0.00 | 65 | 1010.7 |
| 20260510000328 | 74 | 348 | 1.0 | 2.0 | 0.00 | 0.00 | 0.00 | 65 | 1010.6 |
| 20260510000218 | 75 | 348 | 1.0 | 1.0 | 0.00 | 0.00 | 0.00 | 65 | 1010.6 |
| 20260510000124 | 75 | 348 | 0.0 | 1.0 | 0.00 | 0.00 | 0.00 | 65 | 1010.6 |
| 20260510000052 | 75 | 348 | 0.0 | 1.0 | 0.00 | 0.00 | 0.00 | 65 | 1010.7 |
| 20260509235920 | 75 | 348 | 0.0 | 1.0 | 0.00 | 0.00 | 0.00 | 64 | 1010.6 |
| 20260509235831 | 75 | 348 | 0.0 | 1.0 | 0.00 | 0.00 | 0.00 | 63 | 1010.6 |
| 20260509235718 | 75 | 348 | 0.0 | 1.0 | 0.00 | 0.00 | 0.00 | 63 | 1010.6 |
| 20260509235625 | 75 | 348 | 0.0 | 1.0 | 0.00 | 0.00 | 0.00 | 63 | 1010.6 |
| 20260509235531 | 75 | 348 | 0.0 | 1.0 | 0.00 | 0.00 | 0.00 | 62 | 1010.5 |
| 20260509235439 | 75 | 348 | 0.0 | 1.0 | 0.00 | 0.00 | 0.00 | 63 | 1010.5 |
| 20260509235326 | 75 | 348 | 0.0 | 0.0 | 0.00 | 0.00 | 0.00 | 63 | 1010.5 |
| 20260509235238 | 75 | 348 | 0.0 | 1.0 | 0.00 | 0.00 | 0.00 | 62 | 1010.5 |
| 20260509235123 | 75 | 348 | 0.0 | 1.0 | 0.00 | 0.00 | 0.00 | 63 | 1010.5 |
| 20260509235054 | 75 | 348 | 0.0 | 1.0 | 0.00 | 0.00 | 0.00 | 62 | 1010.5 |
| 20260509234827 | 75 | 348 | 0.0 | 1.0 | 0.00 | 0.00 | 0.00 | 63 | 1010.5 |
| 20260509234714 | 75 | 348 | 0.0 | 1.0 | 0.00 | 0.00 | 0.00 | 63 | 1010.6 |
| 20260509234627 | 75 | 348 | 0.0 | 1.0 | 0.00 | 0.00 | 0.00 | 64 | 1010.6 |
| 20260509234533 | 75 | 348 | 0.0 | 1.0 | 0.00 | 0.00 | 0.00 | 64 | 1010.5 |
| 20260509234420 | 75 | 348 | 0.0 | 1.0 | 0.00 | 0.00 | 0.00 | 64 | 1010.4 |
| 20260509234326 | 75 | 348 | 0.0 | 1.0 | 0.00 | 0.00 | 0.00 | 63 | 1010.4 |
| 20260509234213 | 75 | 348 | 0.0 | 3.0 | 0.00 | 0.00 | 0.00 | 63 | 1010.4 |
| 20260509234121 | 75 | 348 | 0.0 | 3.0 | 0.00 | 0.00 | 0.00 | 63 | 1010.5 |
| 20260509234032 | 75 | 348 | 0.0 | 3.0 | 0.00 | 0.00 | 0.00 | 63 | 1010.5 |
| 20260509233920 | 75 | 348 | 0.0 | 3.0 | 0.00 | 0.00 | 0.00 | 63 | 1010.4 |
| 20260509233828 | 75 | 348 | 0.0 | 3.0 | 0.00 | 0.00 | 0.00 | 63 | 1010.4 |
| 20260509233715 | 75 | 348 | 1.0 | 3.0 | 0.00 | 0.00 | 0.00 | 63 | 1010.3 |
| 20260509233622 | 75 | 348 | 1.0 | 3.0 | 0.00 | 0.00 | 0.00 | 63 | 1010.3 |
| 20260509233557 | 75 | 348 | 2.0 | 3.0 | 0.00 | 0.00 | 0.00 | 63 | 1010.3 |
| 20260509233331 | 75 | 348 | 2.0 | 3.0 | 0.00 | 0.00 | 0.00 | 62 | 1010.2 |
| 20260509233219 | 76 | 344 | 1.0 | 3.0 | 0.00 | 0.00 | 0.00 | 62 | 1010.2 |
| 20260509233126 | 75 | 321 | 1.0 | 3.0 | 0.00 | 0.00 | 0.00 | 62 | 1010.2 |
| 20260509233017 | 76 | 321 | 2.0 | 3.0 | 0.00 | 0.00 | 0.00 | 62 | 1010.4 |
| 20260509232945 | 76 | 321 | 2.0 | 3.0 | 0.00 | 0.00 | 0.00 | 62 | 1010.4 |
| 20260509232852 | 76 | 312 | 2.0 | 3.0 | 0.00 | 0.00 | 0.00 | 63 | 1010.4 |
| 20260509232718 | 76 | 304 | 1.0 | 2.0 | 0.00 | 0.00 | 0.00 | 62 | 1010.4 |
| 20260509232626 | 76 | 304 | 1.0 | 2.0 | 0.00 | 0.00 | 0.00 | 62 | 1010.4 |
| 20260509232513 | 76 | 304 | 0.0 | 3.0 | 0.00 | 0.00 | 0.00 | 63 | 1010.5 |
| 20260509232420 | 76 | 304 | 1.0 | 3.0 | 0.00 | 0.00 | 0.00 | 63 | 1010.6 |
| 20260509232312 | 76 | 304 | 1.0 | 3.0 | 0.00 | 0.00 | 0.00 | 63 | 1010.5 |
| 20260509232220 | 76 | 304 | 1.0 | 3.0 | 0.00 | 0.00 | 0.00 | 63 | 1010.5 |
| 20260509232128 | 76 | 304 | 1.0 | 3.0 | 0.00 | 0.00 | 0.00 | 62 | 1010.5 |
| 20260509232058 | 76 | 304 | 1.0 | 3.0 | 0.00 | 0.00 | 0.00 | 62 | 1010.6 |
| 20260509231816 | 76 | 304 | 2.0 | 3.0 | 0.00 | 0.00 | 0.00 | 62 | 1010.6 |
| 20260509231724 | 76 | 306 | 2.0 | 3.0 | 0.00 | 0.00 | 0.00 | 62 | 1010.6 |
| 20260509231612 | 76 | 306 | 2.0 | 3.0 | 0.00 | 0.00 | 0.00 | 62 | 1010.5 |
| 20260509231518 | 76 | 299 | 1.0 | 3.0 | 0.00 | 0.00 | 0.00 | 62 | 1010.5 |
| 20260509231447 | 76 | 294 | 1.0 | 3.0 | 0.00 | 0.00 | 0.00 | 62 | 1010.5 |
| 20260509231314 | 76 | 286 | 1.0 | 4.0 | 0.00 | 0.00 | 0.00 | 62 | 1010.5 |
| 20260509231226 | 76 | 286 | 1.0 | 4.0 | 0.00 | 0.00 | 0.00 | 62 | 1010.5 |
| 20260509231113 | 76 | 263 | 1.0 | 4.0 | 0.00 | 0.00 | 0.00 | 63 | 1010.5 |
| 20260509231021 | 76 | 255 | 1.0 | 5.0 | 0.00 | 0.00 | 0.00 | 63 | 1010.4 |
| 20260509230930 | 76 | 255 | 1.0 | 5.0 | 0.00 | 0.00 | 0.00 | 63 | 1010.4 |
| 20260509230837 | 76 | 271 | 2.0 | 5.0 | 0.00 | 0.00 | 0.00 | 62 | 1010.4 |
| 20260509230723 | 76 | 273 | 2.0 | 5.0 | 0.00 | 0.00 | 0.00 | 62 | 1010.4 |
| 20260509230635 | 76 | 300 | 2.0 | 5.0 | 0.00 | 0.00 | 0.00 | 61 | 1010.4 |
| 20260509230605 | 76 | 348 | 2.0 | 5.0 | 0.00 | 0.00 | 0.00 | 61 | 1010.4 |
| 20260509230318 | 76 | 315 | 3.0 | 5.0 | 0.00 | 0.00 | 0.00 | 61 | 1010.5 |
| 20260509230225 | 76 | 321 | 3.0 | 5.0 | 0.00 | 0.00 | 0.00 | 61 | 1010.5 |
| 20260509230116 | 76 | 340 | 2.0 | 4.0 | 0.00 | 0.00 | 0.00 | 61 | 1010.4 |
| 20260509230022 | 76 | 346 | 2.0 | 3.0 | 0.00 | 0.00 | 0.00 | 61 | 1010.4 |
| 20260509225930 | 76 | 346 | 2.0 | 3.0 | 0.00 | 0.00 | 0.00 | 61 | 1010.4 |
| 20260509225838 | 77 | 346 | 2.0 | 4.0 | 0.00 | 0.00 | 0.00 | 60 | 1010.4 |
| 20260509225725 | 76 | 346 | 2.0 | 4.0 | 0.00 | 0.00 | 0.00 | 60 | 1010.4 |
| 20260509225613 | 77 | 289 | 2.0 | 4.0 | 0.00 | 0.00 | 0.00 | 61 | 1010.4 |
| 20260509225523 | 77 | 304 | 2.0 | 4.0 | 0.00 | 0.00 | 0.00 | 61 | 1010.4 |
| 20260509225431 | 77 | 252 | 2.0 | 4.0 | 0.00 | 0.00 | 0.00 | 61 | 1010.5 |
| 20260509225337 | 77 | 267 | 2.0 | 5.0 | 0.00 | 0.00 | 0.00 | 61 | 1010.3 |
| 20260509225244 | 77 | 293 | 2.0 | 5.0 | 0.00 | 0.00 | 0.00 | 60 | 1010.3 |
| 20260509225130 | 77 | 293 | 2.0 | 5.0 | 0.00 | 0.00 | 0.00 | 61 | 1010.3 |
| 20260509225105 | 77 | 310 | 2.0 | 5.0 | 0.00 | 0.00 | 0.00 | 60 | 1010.2 |
| 20260509224818 | 77 | 312 | 3.0 | 5.0 | 0.00 | 0.00 | 0.00 | 60 | 1010.3 |
| 20260509224725 | 77 | 325 | 3.0 | 5.0 | 0.00 | 0.00 | 0.00 | 60 | 1010.3 |
| 20260509224614 | 77 | 298 | 4.0 | 5.0 | 0.00 | 0.00 | 0.00 | 60 | 1010.3 |
| 20260509224520 | 77 | 344 | 3.0 | 5.0 | 0.00 | 0.00 | 0.00 | 60 | 1010.4 |
| 20260509224413 | 77 | 327 | 2.0 | 5.0 | 0.00 | 0.00 | 0.00 | 60 | 1010.3 |
| 20260509224321 | 77 | 317 | 2.0 | 5.0 | 0.00 | 0.00 | 0.00 | 60 | 1010.3 |
| 20260509224248 | 77 | 315 | 2.0 | 5.0 | 0.00 | 0.00 | 0.00 | 60 | 1010.3 |
| 20260509224113 | 77 | 330 | 3.0 | 5.0 | 0.00 | 0.00 | 0.00 | 61 | 1010.3 |
| 20260509224021 | 77 | 340 | 3.0 | 5.0 | 0.00 | 0.00 | 0.00 | 61 | 1010.3 |
| 20260509223949 | 77 | 348 | 3.0 | 5.0 | 0.00 | 0.00 | 0.00 | 60 | 1010.3 |
| 20260509223816 | 77 | 333 | 3.0 | 5.0 | 0.00 | 0.00 | 0.00 | 60 | 1010.3 |
| 20260509223727 | 77 | 336 | 2.0 | 5.0 | 0.00 | 0.00 | 0.00 | 60 | 1010.3 |
| 20260509223655 | 77 | 259 | 2.0 | 5.0 | 0.00 | 0.00 | 0.00 | 60 | 1010.3 |
| 20260509223604 | 77 | 263 | 3.0 | 5.0 | 0.00 | 0.00 | 0.00 | 60 | 1010.3 |
| 20260509223319 | 77 | 329 | 3.0 | 5.0 | 0.00 | 0.00 | 0.00 | 60 | 1010.3 |
| 20260509223226 | 77 | 334 | 3.0 | 5.0 | 0.00 | 0.00 | 0.00 | 60 | 1010.3 |
| 20260509223136 | 77 | 321 | 3.0 | 5.0 | 0.00 | 0.00 | 0.00 | 60 | 1010.2 |
| 20260509223023 | 77 | 315 | 3.0 | 5.0 | 0.00 | 0.00 | 0.00 | 60 | 1010.2 |
| 20260509222951 | 77 | 310 | 2.0 | 5.0 | 0.00 | 0.00 | 0.00 | 60 | 1010.2 |
| 20260509222817 | 77 | 332 | 1.0 | 4.0 | 0.00 | 0.00 | 0.00 | 60 | 1010.2 |
| 20260509222724 | 77 | 304 | 1.0 | 4.0 | 0.00 | 0.00 | 0.00 | 60 | 1010.2 |
| 20260509222630 | 77 | 275 | 2.0 | 4.0 | 0.00 | 0.00 | 0.00 | 61 | 1010.2 |
| 20260509222522 | 77 | 300 | 2.0 | 4.0 | 0.00 | 0.00 | 0.00 | 60 | 1010.1 |
| 20260509222431 | 77 | 302 | 2.0 | 4.0 | 0.00 | 0.00 | 0.00 | 61 | 1010.1 |
| 20260509222317 | 77 | 335 | 2.0 | 4.0 | 0.00 | 0.00 | 0.00 | 61 | 1010.2 |
| 20260509222225 | 77 | 342 | 2.0 | 4.0 | 0.00 | 0.00 | 0.00 | 61 | 1010.2 |
| 20260509222133 | 77 | 309 | 2.0 | 5.0 | 0.00 | 0.00 | 0.00 | 61 | 1010.2 |
| 20260509222108 | 77 | 311 | 2.0 | 5.0 | 0.00 | 0.00 | 0.00 | 60 | 1010.2 |
| 20260509221839 | 77 | 300 | 2.0 | 5.0 | 0.00 | 0.00 | 0.00 | 60 | 1010.1 |
| 20260509221725 | 77 | 342 | 2.0 | 5.0 | 0.00 | 0.00 | 0.00 | 60 | 1010.1 |
| 20260509221612 | 77 | 325 | 2.0 | 5.0 | 0.00 | 0.00 | 0.00 | 59 | 1010.1 |
| 20260509221540 | 77 | 325 | 2.0 | 5.0 | 0.00 | 0.00 | 0.00 | 59 | 1010.1 |
| 20260509221448 | 77 | 308 | 3.0 | 5.0 | 0.00 | 0.00 | 0.00 | 60 | 1010.1 |
| 20260509221338 | 77 | 281 | 3.0 | 5.0 | 0.00 | 0.00 | 0.00 | 60 | 1010.1 |
| 20260509221223 | 77 | 301 | 4.0 | 5.0 | 0.00 | 0.00 | 0.00 | 60 | 1010.1 |
| 20260509221151 | 77 | 313 | 3.0 | 5.0 | 0.00 | 0.00 | 0.00 | 60 | 1010.1 |
| 20260509221017 | 77 | 338 | 3.0 | 6.0 | 0.00 | 0.00 | 0.00 | 60 | 1010.1 |
| 20260509220924 | 77 | 355 | 3.0 | 6.0 | 0.00 | 0.00 | 0.00 | 61 | 1010.1 |
| 20260509220831 | 77 | 355 | 3.0 | 6.0 | 0.00 | 0.00 | 0.00 | 61 | 1010.0 |
| 20260509220719 | 77 | 351 | 2.0 | 8.0 | 0.00 | 0.00 | 0.00 | 60 | 1010.1 |
| 20260509220650 | 77 | 350 | 3.0 | 8.0 | 0.00 | 0.00 | 0.00 | 60 | 1010.1 |
| 20260509220600 | 77 | 339 | 3.0 | 8.0 | 0.00 | 0.00 | 0.00 | 60 | 1010.2 |
| 20260509220335 | 77 | 344 | 4.0 | 8.0 | 0.00 | 0.00 | 0.00 | 60 | 1010.2 |
| 20260509220222 | 77 | 347 | 4.0 | 8.0 | 0.00 | 0.00 | 0.00 | 61 | 1010.2 |
| 20260509220129 | 77 | 330 | 4.0 | 8.0 | 0.00 | 0.00 | 0.00 | 60 | 1010.1 |
| 20260509220020 | 77 | 323 | 4.0 | 8.0 | 0.00 | 0.00 | 0.00 | 60 | 1010.1 |
| 20260509215927 | 77 | 294 | 4.0 | 7.0 | 0.00 | 0.00 | 0.00 | 60 | 1010.1 |
| 20260509215814 | 77 | 278 | 3.0 | 7.0 | 0.00 | 0.00 | 0.00 | 60 | 1010.1 |
| 20260509215721 | 77 | 292 | 3.0 | 6.0 | 0.00 | 0.00 | 0.00 | 61 | 1010.1 |
| 20260509215648 | 77 | 334 | 3.0 | 6.0 | 0.00 | 0.00 | 0.00 | 61 | 1010.1 |
| 20260509215514 | 77 | 360 | 3.0 | 6.0 | 0.00 | 0.00 | 0.00 | 61 | 1010.2 |
| 20260509215446 | 77 | 334 | 4.0 | 6.0 | 0.00 | 0.00 | 0.00 | 61 | 1010.2 |
| 20260509215313 | 77 | 360 | 4.0 | 6.0 | 0.00 | 0.00 | 0.00 | 61 | 1010.1 |
| 20260509215220 | 77 | 5 | 3.0 | 6.0 | 0.00 | 0.00 | 0.00 | 60 | 1010.0 |
| 20260509215129 | 77 | 360 | 3.0 | 6.0 | 0.00 | 0.00 | 0.00 | 60 | 1010.0 |
| 20260509215059 | 77 | 346 | 3.0 | 8.0 | 0.00 | 0.00 | 0.00 | 60 | 1010.1 |
| 20260509214838 | 77 | 327 | 2.0 | 8.0 | 0.00 | 0.00 | 0.00 | 60 | 1010.1 |
| 20260509214743 | 77 | 294 | 2.0 | 8.0 | 0.00 | 0.00 | 0.00 | 61 | 1010.1 |
| 20260509214628 | 77 | 266 | 2.0 | 8.0 | 0.00 | 0.00 | 0.00 | 61 | 1010.1 |
| 20260509214517 | 77 | 338 | 3.0 | 8.0 | 0.00 | 0.00 | 0.00 | 61 | 1010.1 |
| 20260509214444 | 77 | 322 | 3.0 | 8.0 | 0.00 | 0.00 | 0.00 | 61 | 1010.1 |
| 20260509214330 | 77 | 300 | 3.0 | 8.0 | 0.00 | 0.00 | 0.00 | 61 | 1010.0 |
| 20260509214239 | 77 | 336 | 4.0 | 8.0 | 0.00 | 0.00 | 0.00 | 61 | 1010.1 |
| 20260509214150 | 77 | 344 | 5.0 | 8.0 | 0.00 | 0.00 | 0.00 | 61 | 1010.1 |
| 20260509214016 | 77 | 286 | 5.0 | 8.0 | 0.00 | 0.00 | 0.00 | 61 | 1010.1 |
| 20260509213923 | 77 | 300 | 4.0 | 8.0 | 0.00 | 0.00 | 0.00 | 61 | 1010.1 |
| 20260509213832 | 77 | 258 | 3.0 | 7.0 | 0.00 | 0.00 | 0.00 | 61 | 1010.0 |
| 20260509213720 | 77 | 284 | 3.0 | 7.0 | 0.00 | 0.00 | 0.00 | 61 | 1010.0 |
| 20260509213627 | 77 | 320 | 3.0 | 5.0 | 0.00 | 0.00 | 0.00 | 61 | 1010.0 |
| 20260509213601 | 77 | 355 | 3.0 | 5.0 | 0.00 | 0.00 | 0.00 | 61 | 1010.1 |
| 20260509213316 | 77 | 355 | 3.0 | 8.0 | 0.00 | 0.00 | 0.00 | 60 | 1010.1 |
| 20260509213222 | 77 | 344 | 3.0 | 8.0 | 0.00 | 0.00 | 0.00 | 61 | 1010.1 |
| 20260509213130 | 77 | 319 | 2.0 | 8.0 | 0.00 | 0.00 | 0.00 | 60 | 1010.0 |
| 20260509213022 | 77 | 315 | 1.0 | 8.0 | 0.00 | 0.00 | 0.00 | 60 | 1010.0 |
| 20260509212929 | 77 | 316 | 2.0 | 8.0 | 0.00 | 0.00 | 0.00 | 60 | 1010.0 |
| 20260509212837 | 77 | 323 | 3.0 | 8.0 | 0.00 | 0.00 | 0.00 | 61 | 1010.0 |
| 20260509212723 | 77 | 323 | 4.0 | 8.0 | 0.00 | 0.00 | 0.00 | 60 | 1010.0 |
| 20260509212650 | 77 | 355 | 5.0 | 8.0 | 0.00 | 0.00 | 0.00 | 61 | 1009.9 |
| 20260509212516 | 77 | 323 | 4.0 | 6.0 | 0.00 | 0.00 | 0.00 | 61 | 1010.0 |
| 20260509212424 | 77 | 332 | 3.0 | 6.0 | 0.00 | 0.00 | 0.00 | 60 | 1010.0 |
| 20260509212314 | 77 | 320 | 3.0 | 6.0 | 0.00 | 0.00 | 0.00 | 61 | 1010.1 |
| 20260509212222 | 77 | 338 | 4.0 | 6.0 | 0.00 | 0.00 | 0.00 | 60 | 1010.1 |
| 20260509212130 | 78 | 338 | 3.0 | 8.0 | 0.00 | 0.00 | 0.00 | 62 | 1010.1 |
| 20260509212101 | 77 | 290 | 4.0 | 8.0 | 0.00 | 0.00 | 0.00 | 62 | 1010.1 |
| 20260509211820 | 77 | 279 | 5.0 | 8.0 | 0.00 | 0.00 | 0.00 | 62 | 1010.0 |
| 20260509211727 | 77 | 281 | 4.0 | 8.0 | 0.00 | 0.00 | 0.00 | 62 | 1010.0 |
| 20260509211613 | 77 | 261 | 3.0 | 8.0 | 0.00 | 0.00 | 0.00 | 61 | 1010.1 |
| 20260509211521 | 77 | 313 | 3.0 | 8.0 | 0.00 | 0.00 | 0.00 | 61 | 1010.1 |
| 20260509211430 | 77 | 290 | 3.0 | 8.0 | 0.00 | 0.00 | 0.00 | 62 | 1010.1 |
| 20260509211322 | 77 | 333 | 4.0 | 8.0 | 0.00 | 0.00 | 0.00 | 62 | 1010.1 |
| 20260509211230 | 77 | 332 | 4.0 | 8.0 | 0.00 | 0.00 | 0.00 | 62 | 1010.0 |
| 20260509211118 | 77 | 355 | 3.0 | 7.0 | 0.00 | 0.00 | 0.00 | 61 | 1010.1 |
| 20260509211026 | 77 | 315 | 3.0 | 6.0 | 0.00 | 0.00 | 0.00 | 62 | 1010.1 |
| 20260509210915 | 77 | 355 | 3.0 | 8.0 | 0.00 | 0.00 | 0.00 | 62 | 1010.2 |
| 20260509210822 | 77 | 321 | 3.0 | 9.0 | 0.00 | 0.00 | 0.00 | 62 | 1010.2 |
| 20260509210713 | 77 | 319 | 4.0 | 10.0 | 0.00 | 0.00 | 0.00 | 62 | 1010.1 |
| 20260509210621 | 77 | 337 | 4.0 | 10.0 | 0.00 | 0.00 | 0.00 | 62 | 1010.1 |
| 20260509210551 | 77 | 347 | 4.0 | 10.0 | 0.00 | 0.00 | 0.00 | 61 | 1010.0 |
| 20260509210325 | 77 | 291 | 5.0 | 10.0 | 0.00 | 0.00 | 0.00 | 60 | 1010.0 |
| 20260509210213 | 77 | 302 | 6.0 | 10.0 | 0.00 | 0.00 | 0.00 | 60 | 1010.0 |
| 20260509210121 | 77 | 309 | 7.0 | 10.0 | 0.00 | 0.00 | 0.00 | 61 | 1010.1 |
| 20260509210027 | 77 | 309 | 6.0 | 10.0 | 0.00 | 0.00 | 0.00 | 60 | 1010.1 |
| 20260509205915 | 77 | 315 | 4.0 | 10.0 | 0.00 | 0.00 | 0.00 | 61 | 1010.2 |
| 20260509205823 | 77 | 291 | 4.0 | 9.0 | 0.00 | 0.00 | 0.00 | 61 | 1010.2 |
| 20260509205714 | 77 | 262 | 5.0 | 9.0 | 0.00 | 0.00 | 0.00 | 61 | 1010.2 |
| 20260509205622 | 77 | 283 | 5.0 | 10.0 | 0.00 | 0.00 | 0.00 | 61 | 1010.2 |
| 20260509205548 | 77 | 306 | 5.0 | 10.0 | 0.00 | 0.00 | 0.00 | 61 | 1010.1 |
| 20260509205414 | 77 | 282 | 4.0 | 10.0 | 0.00 | 0.00 | 0.00 | 61 | 1010.2 |
| 20260509205322 | 77 | 313 | 4.0 | 10.0 | 0.00 | 0.00 | 0.00 | 61 | 1010.2 |
| 20260509205229 | 77 | 302 | 4.0 | 10.0 | 0.00 | 0.00 | 0.00 | 61 | 1010.2 |
| 20260509205116 | 77 | 286 | 5.0 | 10.0 | 0.00 | 0.00 | 0.00 | 61 | 1010.2 |
| 20260509205051 | 77 | 280 | 6.0 | 10.0 | 0.00 | 0.00 | 0.00 | 61 | 1010.2 |
| 20260509204824 | 77 | 293 | 5.0 | 10.0 | 0.00 | 0.00 | 0.00 | 62 | 1010.3 |
| 20260509204712 | 77 | 289 | 3.0 | 7.0 | 0.00 | 0.00 | 0.00 | 62 | 1010.3 |
| 20260509204618 | 77 | 240 | 2.0 | 7.0 | 0.00 | 0.00 | 0.00 | 62 | 1010.3 |
| 20260509204530 | 77 | 254 | 3.0 | 7.0 | 0.00 | 0.00 | 0.00 | 62 | 1010.3 |
| 20260509204417 | 77 | 288 | 3.0 | 8.0 | 0.00 | 0.00 | 0.00 | 62 | 1010.3 |
| 20260509204324 | 77 | 319 | 3.0 | 8.0 | 0.00 | 0.00 | 0.00 | 62 | 1010.3 |
| 20260509204213 | 77 | 269 | 3.0 | 8.0 | 0.00 | 0.00 | 0.00 | 62 | 1010.4 |
| 20260509204140 | 77 | 263 | 3.0 | 8.0 | 0.00 | 0.00 | 0.00 | 62 | 1010.4 |
| 20260509204027 | 77 | 290 | 3.0 | 8.0 | 0.00 | 0.00 | 0.00 | 62 | 1010.4 |
| 20260509203920 | 77 | 284 | 2.0 | 8.0 | 0.00 | 0.00 | 0.00 | 62 | 1010.4 |
| 20260509203828 | 77 | 243 | 2.0 | 8.0 | 0.00 | 0.00 | 0.00 | 62 | 1010.4 |
| 20260509203736 | 77 | 321 | 3.0 | 8.0 | 0.00 | 0.00 | 0.00 | 62 | 1010.4 |
| 20260509203623 | 76 | 290 | 4.0 | 8.0 | 0.00 | 0.00 | 0.00 | 62 | 1010.4 |
| 20260509203554 | 76 | 323 | 5.0 | 8.0 | 0.00 | 0.00 | 0.00 | 63 | 1010.4 |
| 20260509203311 | 76 | 264 | 4.0 | 8.0 | 0.00 | 0.00 | 0.00 | 63 | 1010.4 |
| 20260509203219 | 76 | 288 | 2.0 | 8.0 | 0.00 | 0.00 | 0.00 | 63 | 1010.4 |
| 20260509203126 | 76 | 242 | 2.0 | 8.0 | 0.00 | 0.00 | 0.00 | 62 | 1010.4 |
| 20260509203013 | 76 | 360 | 2.0 | 8.0 | 0.00 | 0.00 | 0.00 | 64 | 1010.4 |
| 20260509202922 | 76 | 5 | 3.0 | 8.0 | 0.00 | 0.00 | 0.00 | 63 | 1010.4 |
| 20260509202812 | 76 | 253 | 3.0 | 8.0 | 0.00 | 0.00 | 0.00 | 63 | 1010.4 |
| 20260509202719 | 76 | 263 | 3.0 | 8.0 | 0.00 | 0.00 | 0.00 | 64 | 1010.4 |
| 20260509202625 | 76 | 239 | 3.0 | 5.0 | 0.00 | 0.00 | 0.00 | 63 | 1010.4 |
| 20260509202512 | 76 | 285 | 3.0 | 8.0 | 0.00 | 0.00 | 0.00 | 63 | 1010.5 |
| 20260509202418 | 76 | 277 | 3.0 | 8.0 | 0.00 | 0.00 | 0.00 | 64 | 1010.5 |
| 20260509202327 | 76 | 298 | 3.0 | 8.0 | 0.00 | 0.00 | 0.00 | 64 | 1010.5 |
| 20260509202218 | 76 | 291 | 3.0 | 8.0 | 0.00 | 0.00 | 0.00 | 65 | 1010.5 |
| 20260509202125 | 76 | 306 | 3.0 | 8.0 | 0.00 | 0.00 | 0.00 | 63 | 1010.5 |
| 20260509202056 | 76 | 295 | 3.0 | 8.0 | 0.00 | 0.00 | 0.00 | 63 | 1010.5 |
| 20260509201831 | 76 | 316 | 4.0 | 8.0 | 0.00 | 0.00 | 0.00 | 63 | 1010.7 |
| 20260509201721 | 76 | 305 | 3.0 | 8.0 | 0.00 | 0.00 | 0.00 | 65 | 1010.5 |
| 20260509201629 | 76 | 215 | 2.0 | 8.0 | 0.00 | 0.00 | 0.00 | 64 | 1010.6 |
| 20260509201517 | 76 | 220 | 1.0 | 8.0 | 0.00 | 0.00 | 0.00 | 65 | 1010.6 |
| 20260509201425 | 76 | 238 | 2.0 | 8.0 | 0.00 | 0.00 | 0.00 | 65 | 1010.6 |
| 20260509201333 | 76 | 270 | 2.0 | 8.0 | 0.00 | 0.00 | 0.00 | 65 | 1010.5 |
| 20260509201220 | 76 | 261 | 2.0 | 9.0 | 0.00 | 0.00 | 0.00 | 65 | 1010.5 |
| 20260509201131 | 76 | 310 | 2.0 | 11.0 | 0.00 | 0.00 | 0.00 | 65 | 1010.5 |
| 20260509201018 | 76 | 30 | 4.0 | 11.0 | 0.00 | 0.00 | 0.00 | 65 | 1010.6 |
| 20260509200925 | 76 | 253 | 5.0 | 11.0 | 0.00 | 0.00 | 0.00 | 64 | 1010.6 |
| 20260509200852 | 76 | 268 | 4.0 | 11.0 | 0.00 | 0.00 | 0.00 | 64 | 1010.5 |
| 20260509200719 | 76 | 254 | 5.0 | 11.0 | 0.00 | 0.00 | 0.00 | 64 | 1010.6 |
| 20260509200626 | 76 | 272 | 6.0 | 11.0 | 0.00 | 0.00 | 0.00 | 64 | 1010.6 |
| 20260509200601 | 76 | 303 | 7.0 | 11.0 | 0.00 | 0.00 | 0.00 | 64 | 1010.5 |
| 20260509200314 | 76 | 294 | 6.0 | 11.0 | 0.00 | 0.00 | 0.00 | 64 | 1010.5 |
| 20260509200220 | 76 | 296 | 6.0 | 11.0 | 0.00 | 0.00 | 0.00 | 63 | 1010.5 |
| 20260509200127 | 76 | 301 | 5.0 | 10.0 | 0.00 | 0.00 | 0.00 | 63 | 1010.5 |
| 20260509200020 | 76 | 299 | 6.0 | 10.0 | 0.00 | 0.00 | 0.00 | 63 | 1010.5 |
| 20260509195927 | 76 | 304 | 6.0 | 10.0 | 0.00 | 0.00 | 0.00 | 64 | 1010.5 |
| 20260509195815 | 76 | 265 | 6.0 | 10.0 | 0.00 | 0.00 | 0.00 | 64 | 1010.5 |
| 20260509195742 | 76 | 274 | 5.0 | 9.0 | 0.00 | 0.00 | 0.00 | 64 | 1010.6 |
| 20260509195629 | 76 | 281 | 6.0 | 9.0 | 0.00 | 0.00 | 0.00 | 64 | 1010.6 |
| 20260509195517 | 76 | 291 | 6.0 | 9.0 | 0.00 | 0.00 | 0.00 | 64 | 1010.5 |
| 20260509195430 | 76 | 281 | 5.0 | 9.0 | 0.00 | 0.00 | 0.00 | 64 | 1010.5 |
| 20260509195316 | 76 | 294 | 4.0 | 9.0 | 0.00 | 0.00 | 0.00 | 64 | 1010.5 |
| 20260509195223 | 76 | 311 | 5.0 | 9.0 | 0.00 | 0.00 | 0.00 | 64 | 1010.5 |
| 20260509195131 | 76 | 274 | 5.0 | 9.0 | 0.00 | 0.00 | 0.00 | 64 | 1010.6 |
| 20260509195101 | 76 | 279 | 5.0 | 11.0 | 0.00 | 0.00 | 0.00 | 64 | 1010.6 |
| 20260509194819 | 76 | 288 | 4.0 | 11.0 | 0.00 | 0.00 | 0.00 | 63 | 1010.6 |
| 20260509194726 | 76 | 302 | 4.0 | 11.0 | 0.00 | 0.00 | 0.00 | 63 | 1010.6 |
| 20260509194652 | 76 | 290 | 4.0 | 11.0 | 0.00 | 0.00 | 0.00 | 63 | 1010.5 |
| 20260509194540 | 76 | 267 | 6.0 | 11.0 | 0.00 | 0.00 | 0.00 | 63 | 1010.5 |
| 20260509194426 | 76 | 273 | 7.0 | 11.0 | 0.00 | 0.00 | 0.00 | 63 | 1010.5 |
| 20260509194314 | 76 | 281 | 7.0 | 11.0 | 0.00 | 0.00 | 0.00 | 63 | 1010.4 |
| 20260509194227 | 76 | 273 | 7.0 | 11.0 | 0.00 | 0.00 | 0.00 | 63 | 1010.4 |
| 20260509194115 | 76 | 269 | 6.0 | 10.0 | 0.00 | 0.00 | 0.00 | 64 | 1010.5 |
| 20260509194021 | 76 | 330 | 5.0 | 10.0 | 0.00 | 0.00 | 0.00 | 64 | 1010.5 |
| 20260509193929 | 76 | 287 | 5.0 | 9.0 | 0.00 | 0.00 | 0.00 | 65 | 1010.5 |
| 20260509193817 | 76 | 313 | 4.0 | 9.0 | 0.00 | 0.00 | 0.00 | 65 | 1010.6 |
| 20260509193745 | 76 | 326 | 4.0 | 9.0 | 0.00 | 0.00 | 0.00 | 64 | 1010.6 |
| 20260509193614 | 76 | 290 | 4.0 | 7.0 | 0.00 | 0.00 | 0.00 | 66 | 1010.7 |
| 20260509193546 | 76 | 249 | 4.0 | 6.0 | 0.00 | 0.00 | 0.00 | 65 | 1010.7 |
| 20260509193339 | 76 | 277 | 3.0 | 6.0 | 0.00 | 0.00 | 0.00 | 65 | 1010.4 |
| 20260509193225 | 76 | 296 | 2.0 | 8.0 | 0.00 | 0.00 | 0.00 | 65 | 1010.4 |
| 20260509193114 | 76 | 275 | 3.0 | 8.0 | 0.00 | 0.00 | 0.00 | 65 | 1010.4 |
| 20260509193041 | 76 | 283 | 3.0 | 9.0 | 0.00 | 0.00 | 0.00 | 65 | 1010.4 |
| 20260509192948 | 76 | 273 | 3.0 | 9.0 | 0.00 | 0.00 | 0.00 | 64 | 1010.4 |
| 20260509192814 | 76 | 5 | 4.0 | 9.0 | 0.00 | 0.00 | 0.00 | 64 | 1010.4 |
| 20260509192722 | 76 | 319 | 4.0 | 9.0 | 0.00 | 0.00 | 0.00 | 64 | 1010.4 |
| 20260509192629 | 76 | 277 | 3.0 | 9.0 | 0.00 | 0.00 | 0.00 | 65 | 1010.6 |
| 20260509192516 | 76 | 317 | 4.0 | 9.0 | 0.00 | 0.00 | 0.00 | 64 | 1010.6 |
| 20260509192427 | 76 | 348 | 5.0 | 9.0 | 0.00 | 0.00 | 0.00 | 64 | 1010.6 |
| 20260509192314 | 76 | 297 | 5.0 | 9.0 | 0.00 | 0.00 | 0.00 | 65 | 1010.5 |
| 20260509192223 | 76 | 237 | 4.0 | 9.0 | 0.00 | 0.00 | 0.00 | 65 | 1010.5 |
| 20260509192131 | 76 | 224 | 3.0 | 9.0 | 0.00 | 0.00 | 0.00 | 67 | 1010.6 |
| 20260509192105 | 76 | 194 | 2.0 | 9.0 | 0.00 | 0.00 | 0.00 | 64 | 1010.6 |
| 20260509191819 | 76 | 360 | 2.0 | 11.0 | 0.00 | 0.00 | 0.00 | 63 | 1010.8 |
| 20260509191727 | 76 | 34 | 3.0 | 11.0 | 0.00 | 0.00 | 0.00 | 63 | 1010.8 |
| 20260509191614 | 76 | 181 | 5.0 | 11.0 | 0.00 | 0.00 | 0.00 | 64 | 1010.9 |
| 20260509191523 | 76 | 219 | 5.0 | 11.0 | 0.00 | 0.00 | 0.00 | 64 | 1010.9 |
| 20260509191450 | 76 | 215 | 3.0 | 11.0 | 0.00 | 0.00 | 0.00 | 64 | 1010.8 |
| 20260509191322 | 76 | 313 | 4.0 | 11.0 | 0.00 | 0.00 | 0.00 | 65 | 1010.8 |
| 20260509191229 | 76 | 292 | 4.0 | 11.0 | 0.00 | 0.00 | 0.00 | 64 | 1010.9 |
| 20260509191117 | 76 | 244 | 5.0 | 11.0 | 0.00 | 0.00 | 0.00 | 65 | 1010.9 |
| 20260509191046 | 76 | 258 | 4.0 | 11.0 | 0.00 | 0.00 | 0.00 | 65 | 1010.9 |
| 20260509190952 | 76 | 262 | 5.0 | 11.0 | 0.00 | 0.00 | 0.00 | 65 | 1010.9 |
| 20260509190819 | 76 | 248 | 5.0 | 10.0 | 0.00 | 0.00 | 0.00 | 65 | 1010.8 |
| 20260509190730 | 76 | 239 | 6.0 | 10.0 | 0.00 | 0.00 | 0.00 | 66 | 1010.8 |
| 20260509190617 | 76 | 241 | 7.0 | 10.0 | 0.00 | 0.00 | 0.00 | 66 | 1010.9 |
| 20260509190547 | 76 | 302 | 7.0 | 10.0 | 0.00 | 0.00 | 0.00 | 66 | 1010.9 |
| 20260509190340 | 76 | 329 | 6.0 | 10.0 | 0.00 | 0.00 | 0.00 | 66 | 1010.7 |
| 20260509190246 | 75 | 329 | 5.0 | 9.0 | 0.00 | 0.00 | 0.00 | 66 | 1010.7 |
| 20260509190117 | 75 | 264 | 5.0 | 9.0 | 0.00 | 0.00 | 0.00 | 66 | 1010.8 |
| 20260509190024 | 75 | 343 | 5.0 | 9.0 | 0.00 | 0.00 | 0.00 | 66 | 1010.8 |
| 20260509185932 | 75 | 309 | 4.0 | 8.0 | 0.00 | 0.00 | 0.00 | 67 | 1010.8 |
| 20260509185819 | 75 | 277 | 2.0 | 9.0 | 0.00 | 0.00 | 0.00 | 67 | 1010.9 |
| 20260509185727 | 75 | 167 | 1.0 | 9.0 | 0.00 | 0.00 | 0.00 | 67 | 1010.9 |
| 20260509185634 | 75 | 49 | 2.0 | 9.0 | 0.00 | 0.00 | 0.00 | 67 | 1010.8 |
| 20260509185525 | 75 | 286 | 2.0 | 9.0 | 0.00 | 0.00 | 0.00 | 67 | 1010.8 |
| 20260509185452 | 75 | 270 | 2.0 | 9.0 | 0.00 | 0.00 | 0.00 | 67 | 1010.8 |
| 20260509185320 | 75 | 336 | 3.0 | 9.0 | 0.00 | 0.00 | 0.00 | 67 | 1010.9 |
| 20260509185227 | 75 | 287 | 4.0 | 9.0 | 0.00 | 0.00 | 0.00 | 66 | 1010.9 |
| 20260509185136 | 75 | 252 | 4.0 | 9.0 | 0.00 | 0.00 | 0.00 | 67 | 1010.9 |
| 20260509185049 | 75 | 260 | 4.0 | 11.0 | 0.00 | 0.00 | 0.00 | 67 | 1010.9 |
| 20260509184821 | 75 | 306 | 2.0 | 11.0 | 0.00 | 0.00 | 0.00 | 67 | 1011.0 |
| 20260509184728 | 75 | 218 | 2.0 | 11.0 | 0.00 | 0.00 | 0.00 | 67 | 1010.9 |
| 20260509184615 | 75 | 220 | 2.0 | 11.0 | 0.00 | 0.00 | 0.00 | 68 | 1011.0 |
| 20260509184523 | 75 | 243 | 4.0 | 11.0 | 0.00 | 0.00 | 0.00 | 67 | 1011.0 |
| 20260509184431 | 75 | 291 | 5.0 | 11.0 | 0.00 | 0.00 | 0.00 | 66 | 1011.0 |
| 20260509184342 | 75 | 293 | 5.0 | 11.0 | 0.00 | 0.00 | 0.00 | 67 | 1011.1 |
| 20260509184249 | 75 | 293 | 5.0 | 11.0 | 0.00 | 0.00 | 0.00 | 68 | 1011.1 |
| 20260509184115 | 75 | 259 | 4.0 | 9.0 | 0.00 | 0.00 | 0.00 | 68 | 1011.1 |
| 20260509184022 | 75 | 248 | 4.0 | 9.0 | 0.00 | 0.00 | 0.00 | 67 | 1011.1 |
| 20260509183929 | 74 | 253 | 4.0 | 9.0 | 0.00 | 0.00 | 0.00 | 67 | 1011.1 |
| 20260509183816 | 74 | 248 | 4.0 | 9.0 | 0.00 | 0.00 | 0.00 | 67 | 1011.1 |
| 20260509183728 | 74 | 281 | 4.0 | 9.0 | 0.00 | 0.00 | 0.00 | 68 | 1011.1 |
| 20260509183654 | 74 | 330 | 4.0 | 9.0 | 0.00 | 0.00 | 0.00 | 69 | 1011.1 |
| 20260509183604 | 74 | 284 | 5.0 | 9.0 | 0.00 | 0.00 | 0.00 | 69 | 1011.2 |
| 20260509183317 | 74 | 288 | 6.0 | 9.0 | 0.00 | 0.00 | 0.00 | 68 | 1011.2 |
| 20260509183224 | 74 | 345 | 5.0 | 9.0 | 0.00 | 0.00 | 0.00 | 69 | 1011.2 |
| 20260509183115 | 74 | 246 | 4.0 | 9.0 | 0.00 | 0.00 | 0.00 | 70 | 1011.1 |
| 20260509183022 | 74 | 206 | 3.0 | 8.0 | 0.00 | 0.00 | 0.00 | 68 | 1011.1 |
| 20260509182930 | 74 | 228 | 3.0 | 8.0 | 0.00 | 0.00 | 0.00 | 67 | 1011.2 |
| 20260509182818 | 74 | 202 | 3.0 | 8.0 | 0.00 | 0.00 | 0.00 | 67 | 1011.3 |
| 20260509182747 | 74 | 197 | 4.0 | 9.0 | 0.00 | 0.00 | 0.00 | 67 | 1011.3 |
| 20260509182633 | 74 | 238 | 3.0 | 9.0 | 0.00 | 0.00 | 0.00 | 67 | 1011.3 |
| 20260509182539 | 74 | 275 | 2.0 | 9.0 | 0.00 | 0.00 | 0.00 | 67 | 1011.3 |
| 20260509182430 | 74 | 276 | 3.0 | 9.0 | 0.00 | 0.00 | 0.00 | 67 | 1011.3 |
| 20260509182318 | 74 | 347 | 3.0 | 9.0 | 0.00 | 0.00 | 0.00 | 67 | 1011.4 |
| 20260509182226 | 74 | 215 | 4.0 | 9.0 | 0.00 | 0.00 | 0.00 | 67 | 1011.4 |
| 20260509182113 | 74 | 246 | 5.0 | 9.0 | 0.00 | 0.00 | 0.00 | 67 | 1011.3 |
| 20260509182047 | 74 | 288 | 5.0 | 9.0 | 0.00 | 0.00 | 0.00 | 67 | 1011.3 |
| 20260509181822 | 74 | 339 | 4.0 | 9.0 | 0.00 | 0.00 | 0.00 | 68 | 1011.3 |
| 20260509181728 | 74 | 279 | 4.0 | 11.0 | 0.00 | 0.00 | 0.00 | 68 | 1011.4 |
| 20260509181617 | 74 | 318 | 3.0 | 11.0 | 0.00 | 0.00 | 0.00 | 68 | 1011.3 |
| 20260509181525 | 74 | 242 | 3.0 | 11.0 | 0.00 | 0.00 | 0.00 | 68 | 1011.3 |
| 20260509181417 | 74 | 319 | 2.0 | 11.0 | 0.00 | 0.00 | 0.00 | 69 | 1011.3 |
| 20260509181325 | 74 | 302 | 2.0 | 11.0 | 0.00 | 0.00 | 0.00 | 69 | 1011.3 |
| 20260509181213 | 74 | 319 | 2.0 | 11.0 | 0.00 | 0.00 | 0.00 | 69 | 1011.2 |
| 20260509181120 | 73 | 319 | 3.0 | 11.0 | 0.00 | 0.00 | 0.00 | 70 | 1011.3 |
| 20260509181027 | 73 | 329 | 4.0 | 11.0 | 0.00 | 0.00 | 0.00 | 69 | 1011.3 |
| 20260509180913 | 73 | 342 | 6.0 | 11.0 | 0.00 | 0.00 | 0.00 | 68 | 1011.2 |
| 20260509180845 | 73 | 287 | 7.0 | 11.0 | 0.00 | 0.00 | 0.00 | 68 | 1011.2 |
| 20260509180752 | 73 | 282 | 5.0 | 11.0 | 0.00 | 0.00 | 0.00 | 68 | 1011.3 |
| 20260509180618 | 73 | 330 | 3.0 | 10.0 | 0.00 | 0.00 | 0.00 | 68 | 1011.3 |
| 20260509180548 | 73 | 277 | 2.0 | 10.0 | 0.00 | 0.00 | 0.00 | 69 | 1011.3 |
| 20260509180322 | 73 | 213 | 3.0 | 10.0 | 0.00 | 0.00 | 0.00 | 68 | 1011.2 |
| 20260509180234 | 73 | 200 | 4.0 | 10.0 | 0.00 | 0.00 | 0.00 | 69 | 1011.1 |
| 20260509180120 | 73 | 260 | 5.0 | 10.0 | 0.00 | 0.00 | 0.00 | 69 | 1011.1 |
| 20260509180027 | 73 | 276 | 5.0 | 10.0 | 0.00 | 0.00 | 0.00 | 70 | 1011.1 |
| 20260509175934 | 73 | 245 | 3.0 | 10.0 | 0.00 | 0.00 | 0.00 | 69 | 1011.1 |
| 20260509175821 | 73 | 267 | 2.0 | 9.0 | 0.00 | 0.00 | 0.00 | 69 | 1011.1 |
| 20260509175727 | 73 | 287 | 3.0 | 9.0 | 0.00 | 0.00 | 0.00 | 69 | 1011.1 |
| 20260509175634 | 73 | 308 | 4.0 | 9.0 | 0.00 | 0.00 | 0.00 | 69 | 1011.2 |
| 20260509175524 | 73 | 331 | 5.0 | 9.0 | 0.00 | 0.00 | 0.00 | 68 | 1011.2 |
| 20260509175452 | 73 | 306 | 5.0 | 9.0 | 0.00 | 0.00 | 0.00 | 69 | 1011.1 |
| 20260509175338 | 72 | 290 | 5.0 | 9.0 | 0.00 | 0.00 | 0.00 | 69 | 1011.1 |
| 20260509175226 | 72 | 307 | 4.0 | 8.0 | 0.00 | 0.00 | 0.00 | 70 | 1011.1 |
| 20260509175132 | 72 | 262 | 2.0 | 8.0 | 0.00 | 0.00 | 0.00 | 70 | 1011.1 |
| 20260509175105 | 72 | 277 | 2.0 | 9.0 | 0.00 | 0.00 | 0.00 | 70 | 1011.1 |
| 20260509174818 | 72 | 275 | 3.0 | 9.0 | 0.00 | 0.00 | 0.00 | 70 | 1011.1 |
| 20260509174726 | 72 | 205 | 3.0 | 9.0 | 0.00 | 0.00 | 0.00 | 69 | 1011.1 |
| 20260509174634 | 72 | 192 | 3.0 | 9.0 | 0.00 | 0.00 | 0.00 | 70 | 1011.2 |
| 20260509174520 | 72 | 252 | 3.0 | 9.0 | 0.00 | 0.00 | 0.00 | 68 | 1011.2 |
| 20260509174428 | 72 | 192 | 4.0 | 10.0 | 0.00 | 0.00 | 0.00 | 68 | 1011.2 |
| 20260509174319 | 72 | 227 | 5.0 | 10.0 | 0.00 | 0.00 | 0.00 | 68 | 1011.2 |
| 20260509174226 | 72 | 251 | 5.0 | 10.0 | 0.00 | 0.00 | 0.00 | 69 | 1011.2 |
| 20260509174113 | 72 | 253 | 4.0 | 10.0 | 0.00 | 0.00 | 0.00 | 69 | 1011.1 |
| 20260509174021 | 72 | 272 | 4.0 | 10.0 | 0.00 | 0.00 | 0.00 | 70 | 1011.1 |
| 20260509173928 | 72 | 232 | 4.0 | 10.0 | 0.00 | 0.00 | 0.00 | 69 | 1011.1 |
| 20260509173819 | 72 | 334 | 5.0 | 10.0 | 0.00 | 0.00 | 0.00 | 69 | 1011.1 |
| 20260509173728 | 72 | 323 | 6.0 | 10.0 | 0.00 | 0.00 | 0.00 | 69 | 1011.1 |
| 20260509173635 | 72 | 298 | 5.0 | 10.0 | 0.00 | 0.00 | 0.00 | 69 | 1010.9 |
| 20260509173546 | 72 | 308 | 4.0 | 9.0 | 0.00 | 0.00 | 0.00 | 70 | 1010.9 |
| 20260509173320 | 72 | 275 | 3.0 | 7.0 | 0.00 | 0.00 | 0.00 | 71 | 1010.9 |
| 20260509173212 | 72 | 292 | 2.0 | 6.0 | 0.00 | 0.00 | 0.00 | 71 | 1010.9 |
| 20260509173118 | 72 | 273 | 2.0 | 8.0 | 0.00 | 0.00 | 0.00 | 71 | 1010.9 |
| 20260509173026 | 72 | 202 | 2.0 | 8.0 | 0.00 | 0.00 | 0.00 | 70 | 1010.9 |
| 20260509172934 | 72 | 259 | 1.0 | 9.0 | 0.00 | 0.00 | 0.00 | 71 | 1011.0 |
| 20260509172821 | 72 | 296 | 1.0 | 9.0 | 0.00 | 0.00 | 0.00 | 71 | 1010.9 |
| 20260509172748 | 72 | 163 | 2.0 | 9.0 | 0.00 | 0.00 | 0.00 | 70 | 1010.9 |
| 20260509172618 | 72 | 263 | 2.0 | 9.0 | 0.00 | 0.00 | 0.00 | 71 | 1011.0 |
| 20260509172525 | 71 | 302 | 3.0 | 9.0 | 0.00 | 0.00 | 0.00 | 71 | 1011.0 |
| 20260509172414 | 71 | 161 | 5.0 | 9.0 | 0.00 | 0.00 | 0.00 | 71 | 1011.1 |
| 20260509172320 | 71 | 173 | 5.0 | 9.0 | 0.00 | 0.00 | 0.00 | 70 | 1011.1 |
| 20260509172247 | 71 | 187 | 5.0 | 9.0 | 0.00 | 0.00 | 0.00 | 70 | 1011.1 |
| 20260509172113 | 71 | 196 | 3.0 | 8.0 | 0.00 | 0.00 | 0.00 | 71 | 1011.2 |
| 20260509172048 | 71 | 173 | 4.0 | 8.0 | 0.00 | 0.00 | 0.00 | 72 | 1011.2 |
| 20260509171822 | 71 | 186 | 4.0 | 8.0 | 0.00 | 0.00 | 0.00 | 72 | 1011.3 |
| 20260509171748 | 71 | 274 | 4.0 | 8.0 | 0.00 | 0.00 | 0.00 | 71 | 1011.3 |
| 20260509171614 | 71 | 248 | 4.0 | 10.0 | 0.00 | 0.00 | 0.00 | 72 | 1011.3 |
| 20260509171521 | 71 | 217 | 3.0 | 10.0 | 0.00 | 0.00 | 0.00 | 72 | 1011.3 |
| 20260509171432 | 71 | 169 | 4.0 | 10.0 | 0.00 | 0.00 | 0.00 | 72 | 1011.3 |
| 20260509171316 | 71 | 192 | 5.0 | 10.0 | 0.00 | 0.00 | 0.00 | 73 | 1011.3 |
| 20260509171223 | 71 | 304 | 5.0 | 10.0 | 0.00 | 0.00 | 0.00 | 73 | 1011.3 |
| 20260509171131 | 70 | 260 | 5.0 | 12.0 | 0.00 | 0.00 | 0.00 | 73 | 1011.4 |
| 20260509171019 | 70 | 240 | 6.0 | 12.0 | 0.00 | 0.00 | 0.00 | 74 | 1011.3 |
| 20260509170926 | 70 | 275 | 6.0 | 12.0 | 0.00 | 0.00 | 0.00 | 74 | 1011.3 |
| 20260509170818 | 70 | 241 | 5.0 | 12.0 | 0.00 | 0.00 | 0.00 | 74 | 1011.4 |
| 20260509170726 | 70 | 217 | 4.0 | 12.0 | 0.00 | 0.00 | 0.00 | 75 | 1011.4 |
| 20260509170633 | 70 | 301 | 5.0 | 12.0 | 0.00 | 0.00 | 0.00 | 76 | 1011.3 |
| 20260509170604 | 70 | 242 | 6.0 | 12.0 | 0.00 | 0.00 | 0.00 | 75 | 1011.3 |
| 20260509170341 | 70 | 228 | 6.0 | 12.0 | 0.00 | 0.00 | 0.00 | 74 | 1011.5 |
| 20260509170246 | 70 | 204 | 5.0 | 11.0 | 0.00 | 0.00 | 0.00 | 74 | 1011.5 |
| 20260509170112 | 70 | 170 | 5.0 | 11.0 | 0.00 | 0.00 | 0.00 | 74 | 1011.5 |
| 20260509170020 | 70 | 180 | 5.0 | 11.0 | 0.00 | 0.00 | 0.00 | 74 | 1011.6 |
| 20260509165928 | 70 | 187 | 6.0 | 11.0 | 0.00 | 0.00 | 0.00 | 74 | 1011.6 |
| 20260509165816 | 70 | 242 | 7.0 | 11.0 | 0.00 | 0.00 | 0.00 | 74 | 1011.6 |
| 20260509165729 | 70 | 202 | 6.0 | 11.0 | 0.00 | 0.00 | 0.00 | 74 | 1011.6 |
| 20260509165615 | 70 | 228 | 4.0 | 12.0 | 0.00 | 0.00 | 0.00 | 74 | 1011.6 |
| 20260509165524 | 70 | 199 | 3.0 | 12.0 | 0.00 | 0.00 | 0.00 | 74 | 1011.6 |
| 20260509165451 | 70 | 224 | 3.0 | 12.0 | 0.00 | 0.00 | 0.00 | 76 | 1011.6 |
| 20260509165318 | 69 | 178 | 5.0 | 12.0 | 0.00 | 0.00 | 0.00 | 76 | 1011.7 |
| 20260509165246 | 69 | 183 | 5.0 | 12.0 | 0.00 | 0.00 | 0.00 | 75 | 1011.7 |
| 20260509165132 | 69 | 183 | 6.0 | 12.0 | 0.00 | 0.00 | 0.00 | 74 | 1011.7 |
| 20260509165046 | 69 | 160 | 6.0 | 12.0 | 0.00 | 0.00 | 0.00 | 74 | 1011.7 |
| 20260509164840 | 69 | 164 | 7.0 | 12.0 | 0.00 | 0.00 | 0.00 | 75 | 1011.8 |
| 20260509164727 | 69 | 180 | 7.0 | 12.0 | 0.00 | 0.00 | 0.00 | 75 | 1011.8 |
| 20260509164615 | 69 | 175 | 6.0 | 12.0 | 0.00 | 0.00 | 0.00 | 76 | 1011.7 |
| 20260509164522 | 69 | 205 | 4.0 | 12.0 | 0.00 | 0.00 | 0.00 | 76 | 1011.7 |
| 20260509164412 | 69 | 180 | 5.0 | 12.0 | 0.00 | 0.00 | 0.00 | 75 | 1011.7 |
| 20260509164320 | 69 | 169 | 5.0 | 12.0 | 0.00 | 0.00 | 0.00 | 75 | 1011.7 |
| 20260509164227 | 69 | 142 | 7.0 | 12.0 | 0.00 | 0.00 | 0.00 | 75 | 1011.7 |
| 20260509164116 | 69 | 212 | 6.0 | 12.0 | 0.00 | 0.00 | 0.00 | 75 | 1011.8 |
| 20260509164023 | 69 | 184 | 6.0 | 11.0 | 0.00 | 0.00 | 0.00 | 75 | 1011.8 |
| 20260509163915 | 69 | 183 | 6.0 | 11.0 | 0.00 | 0.00 | 0.00 | 75 | 1011.8 |
| 20260509163823 | 69 | 189 | 5.0 | 9.0 | 0.00 | 0.00 | 0.00 | 76 | 1011.8 |
| 20260509163730 | 69 | 217 | 4.0 | 9.0 | 0.00 | 0.00 | 0.00 | 75 | 1011.8 |
| 20260509163617 | 69 | 205 | 4.0 | 8.0 | 0.00 | 0.00 | 0.00 | 77 | 1011.8 |
| 20260509163552 | 69 | 148 | 4.0 | 8.0 | 0.00 | 0.00 | 0.00 | 77 | 1011.8 |
| 20260509163346 | 69 | 176 | 4.0 | 10.0 | 0.00 | 0.00 | 0.00 | 77 | 1011.8 |
| 20260509163211 | 68 | 240 | 3.0 | 11.0 | 0.00 | 0.00 | 0.00 | 77 | 1011.8 |
| 20260509163119 | 68 | 288 | 3.0 | 11.0 | 0.00 | 0.00 | 0.00 | 77 | 1011.8 |
| 20260509163048 | 68 | 283 | 3.0 | 11.0 | 0.00 | 0.00 | 0.00 | 77 | 1011.8 |
| 20260509162915 | 68 | 186 | 2.0 | 11.0 | 0.00 | 0.00 | 0.00 | 77 | 1011.8 |
| 20260509162843 | 68 | 304 | 2.0 | 11.0 | 0.00 | 0.00 | 0.00 | 76 | 1011.8 |
| 20260509162712 | 68 | 232 | 3.0 | 11.0 | 0.00 | 0.00 | 0.00 | 77 | 1011.9 |
| 20260509162641 | 68 | 192 | 5.0 | 11.0 | 0.00 | 0.00 | 0.00 | 77 | 1011.7 |
| 20260509162548 | 68 | 200 | 5.0 | 11.0 | 0.00 | 0.00 | 0.00 | 78 | 1011.7 |
| 20260509162415 | 68 | 167 | 6.0 | 11.0 | 0.00 | 0.00 | 0.00 | 78 | 1011.7 |
| 20260509162343 | 68 | 232 | 6.0 | 12.0 | 0.00 | 0.00 | 0.00 | 78 | 1011.7 |
| 20260509162230 | 68 | 165 | 5.0 | 9.0 | 0.00 | 0.00 | 0.00 | 78 | 1011.8 |
| 20260509162117 | 68 | 180 | 5.0 | 9.0 | 0.00 | 0.00 | 0.00 | 78 | 1011.8 |
| 20260509162050 | 68 | 192 | 5.0 | 9.0 | 0.00 | 0.00 | 0.00 | 78 | 1011.8 |
| 20260509161824 | 67 | 169 | 6.0 | 9.0 | 0.00 | 0.00 | 0.00 | 78 | 1011.7 |
| 20260509161751 | 67 | 226 | 6.0 | 9.0 | 0.00 | 0.00 | 0.00 | 78 | 1011.7 |
| 20260509161618 | 67 | 197 | 4.0 | 10.0 | 0.00 | 0.00 | 0.00 | 78 | 1011.7 |
| 20260509161525 | 67 | 205 | 3.0 | 10.0 | 0.00 | 0.00 | 0.00 | 78 | 1011.7 |
| 20260509161437 | 67 | 176 | 3.0 | 10.0 | 0.00 | 0.00 | 0.00 | 78 | 1011.7 |
| 20260509161323 | 67 | 189 | 3.0 | 10.0 | 0.00 | 0.00 | 0.00 | 79 | 1011.7 |
| 20260509161230 | 67 | 199 | 3.0 | 10.0 | 0.00 | 0.00 | 0.00 | 80 | 1011.8 |
| 20260509161119 | 67 | 225 | 3.0 | 10.0 | 0.00 | 0.00 | 0.00 | 80 | 1011.7 |
| 20260509161026 | 67 | 236 | 3.0 | 10.0 | 0.00 | 0.00 | 0.00 | 80 | 1011.7 |
| 20260509160917 | 66 | 261 | 4.0 | 10.0 | 0.00 | 0.00 | 0.00 | 80 | 1011.8 |
| 20260509160845 | 66 | 170 | 5.0 | 10.0 | 0.00 | 0.00 | 0.00 | 80 | 1011.8 |
| 20260509160731 | 66 | 160 | 5.0 | 10.0 | 0.00 | 0.00 | 0.00 | 80 | 1011.8 |
| 20260509160640 | 66 | 167 | 4.0 | 10.0 | 0.00 | 0.00 | 0.00 | 81 | 1011.8 |
| 20260509160610 | 66 | 169 | 4.0 | 8.0 | 0.00 | 0.00 | 0.00 | 81 | 1011.7 |
| 20260509160343 | 66 | 198 | 4.0 | 8.0 | 0.00 | 0.00 | 0.00 | 81 | 1011.8 |
| 20260509160213 | 66 | 144 | 5.0 | 9.0 | 0.00 | 0.00 | 0.00 | 81 | 1011.8 |
| 20260509160142 | 66 | 194 | 6.0 | 9.0 | 0.00 | 0.00 | 0.00 | 81 | 1011.8 |
| 20260509160028 | 66 | 214 | 5.0 | 9.0 | 0.00 | 0.00 | 0.00 | 81 | 1011.8 |
| 20260509155915 | 65 | 146 | 4.0 | 9.0 | 0.00 | 0.00 | 0.00 | 81 | 1011.8 |
| 20260509155823 | 65 | 175 | 4.0 | 9.0 | 0.00 | 0.00 | 0.00 | 81 | 1011.8 |
| 20260509155730 | 65 | 193 | 4.0 | 9.0 | 0.00 | 0.00 | 0.00 | 80 | 1011.8 |
| 20260509155622 | 65 | 168 | 6.0 | 9.0 | 0.00 | 0.00 | 0.00 | 80 | 1011.8 |
| 20260509155529 | 65 | 214 | 6.0 | 9.0 | 0.00 | 0.00 | 0.00 | 80 | 1011.7 |
| 20260509155417 | 65 | 200 | 5.0 | 9.0 | 0.00 | 0.00 | 0.00 | 80 | 1011.8 |
| 20260509155325 | 65 | 193 | 4.0 | 9.0 | 0.00 | 0.00 | 0.00 | 80 | 1011.8 |
| 20260509155213 | 65 | 198 | 5.0 | 9.0 | 0.00 | 0.00 | 0.00 | 81 | 1011.6 |
| 20260509155125 | 65 | 203 | 5.0 | 7.0 | 0.00 | 0.00 | 0.00 | 81 | 1011.6 |
| 20260509155056 | 65 | 209 | 4.0 | 7.0 | 0.00 | 0.00 | 0.00 | 80 | 1011.7 |
| 20260509154829 | 65 | 223 | 4.0 | 9.0 | 0.00 | 0.00 | 0.00 | 81 | 1011.6 |
| 20260509154715 | 65 | 234 | 3.0 | 9.0 | 0.00 | 0.00 | 0.00 | 81 | 1011.7 |
| 20260509154624 | 65 | 200 | 2.0 | 9.0 | 0.00 | 0.00 | 0.00 | 81 | 1011.7 |
| 20260509154516 | 65 | 213 | 2.0 | 9.0 | 0.00 | 0.00 | 0.00 | 82 | 1011.7 |
| 20260509154423 | 65 | 235 | 2.0 | 9.0 | 0.00 | 0.00 | 0.00 | 82 | 1011.7 |
| 20260509154351 | 65 | 246 | 2.0 | 9.0 | 0.00 | 0.00 | 0.00 | 82 | 1011.7 |
| 20260509154217 | 65 | 187 | 4.0 | 9.0 | 0.00 | 0.00 | 0.00 | 82 | 1011.7 |
| 20260509154124 | 65 | 219 | 5.0 | 9.0 | 0.00 | 0.00 | 0.00 | 81 | 1011.7 |
| 20260509154015 | 65 | 213 | 4.0 | 9.0 | 0.00 | 0.00 | 0.00 | 81 | 1011.8 |
| 20260509153943 | 65 | 166 | 2.0 | 8.0 | 0.00 | 0.00 | 0.00 | 81 | 1011.8 |
| 20260509153829 | 65 | 234 | 3.0 | 8.0 | 0.00 | 0.00 | 0.00 | 82 | 1011.8 |
| 20260509153717 | 65 | 214 | 3.0 | 8.0 | 0.00 | 0.00 | 0.00 | 82 | 1011.8 |
| 20260509153623 | 65 | 193 | 4.0 | 8.0 | 0.00 | 0.00 | 0.00 | 82 | 1011.8 |
| 20260509153557 | 65 | 206 | 4.0 | 8.0 | 0.00 | 0.00 | 0.00 | 82 | 1011.7 |
| 20260509153351 | 65 | 244 | 5.0 | 8.0 | 0.00 | 0.00 | 0.00 | 81 | 1011.7 |
| 20260509153217 | 65 | 219 | 6.0 | 8.0 | 0.00 | 0.00 | 0.00 | 81 | 1011.8 |
| 20260509153124 | 65 | 205 | 6.0 | 8.0 | 0.00 | 0.00 | 0.00 | 81 | 1011.8 |
| 20260509153052 | 65 | 206 | 6.0 | 8.0 | 0.00 | 0.00 | 0.00 | 81 | 1011.9 |
| 20260509152918 | 65 | 221 | 4.0 | 8.0 | 0.00 | 0.00 | 0.00 | 82 | 1011.8 |
| 20260509152845 | 65 | 168 | 4.0 | 8.0 | 0.00 | 0.00 | 0.00 | 81 | 1011.8 |
| 20260509152715 | 65 | 160 | 4.0 | 7.0 | 0.00 | 0.00 | 0.00 | 82 | 1011.9 |
| 20260509152643 | 65 | 171 | 3.0 | 7.0 | 0.00 | 0.00 | 0.00 | 82 | 1011.9 |
| 20260509152530 | 64 | 289 | 4.0 | 7.0 | 0.00 | 0.00 | 0.00 | 83 | 1011.9 |
| 20260509152418 | 64 | 188 | 4.0 | 7.0 | 0.00 | 0.00 | 0.00 | 83 | 1011.8 |
| 20260509152324 | 64 | 202 | 4.0 | 8.0 | 0.00 | 0.00 | 0.00 | 82 | 1011.8 |
| 20260509152213 | 64 | 177 | 4.0 | 8.0 | 0.00 | 0.00 | 0.00 | 83 | 1011.8 |
| 20260509152144 | 64 | 171 | 4.0 | 8.0 | 0.00 | 0.00 | 0.00 | 83 | 1011.8 |
| 20260509152053 | 64 | 158 | 4.0 | 8.0 | 0.00 | 0.00 | 0.00 | 83 | 1011.7 |
| 20260509151827 | 64 | 110 | 4.0 | 8.0 | 0.00 | 0.00 | 0.00 | 83 | 1012.0 |
| 20260509151734 | 64 | 165 | 4.0 | 8.0 | 0.00 | 0.00 | 0.00 | 83 | 1012.0 |
| 20260509151620 | 64 | 218 | 5.0 | 8.0 | 0.00 | 0.00 | 0.00 | 83 | 1012.0 |
| 20260509151548 | 64 | 191 | 6.0 | 8.0 | 0.00 | 0.00 | 0.00 | 83 | 1012.0 |
| 20260509151420 | 64 | 192 | 5.0 | 8.0 | 0.00 | 0.00 | 0.00 | 83 | 1012.0 |
| 20260509151327 | 64 | 181 | 4.0 | 9.0 | 0.00 | 0.00 | 0.00 | 83 | 1012.0 |
| 20260509151214 | 64 | 159 | 3.0 | 9.0 | 0.00 | 0.00 | 0.00 | 83 | 1011.9 |
| 20260509151142 | 64 | 172 | 2.0 | 9.0 | 0.00 | 0.00 | 0.00 | 83 | 1011.9 |
| 20260509151028 | 64 | 188 | 2.0 | 9.0 | 0.00 | 0.00 | 0.00 | 84 | 1012.0 |
| 20260509150919 | 63 | 173 | 3.0 | 9.0 | 0.00 | 0.00 | 0.00 | 83 | 1012.0 |
| 20260509150826 | 63 | 159 | 4.0 | 9.0 | 0.00 | 0.00 | 0.00 | 83 | 1012.0 |
| 20260509150753 | 63 | 159 | 5.0 | 9.0 | 0.00 | 0.00 | 0.00 | 84 | 1012.1 |
| 20260509150700 | 63 | 172 | 5.0 | 9.0 | 0.00 | 0.00 | 0.00 | 84 | 1011.9 |
| 20260509150549 | 63 | 183 | 5.0 | 8.0 | 0.00 | 0.00 | 0.00 | 85 | 1012.0 |
| 20260509150321 | 63 | 172 | 4.0 | 8.0 | 0.00 | 0.00 | 0.00 | 85 | 1011.9 |
| 20260509150213 | 63 | 201 | 3.0 | 8.0 | 0.00 | 0.00 | 0.00 | 86 | 1011.9 |
| 20260509150140 | 63 | 115 | 2.0 | 8.0 | 0.00 | 0.00 | 0.00 | 87 | 1011.9 |
| 20260509150028 | 63 | 117 | 2.0 | 9.0 | 0.00 | 0.00 | 0.00 | 86 | 1011.9 |
| 20260509145915 | 63 | 192 | 4.0 | 9.0 | 0.00 | 0.00 | 0.00 | 86 | 1012.0 |
| 20260509145821 | 62 | 178 | 4.0 | 9.0 | 0.00 | 0.00 | 0.00 | 86 | 1012.0 |
| 20260509145750 | 62 | 171 | 3.0 | 9.0 | 0.00 | 0.00 | 0.00 | 86 | 1011.9 |
| 20260509145620 | 62 | 219 | 4.0 | 9.0 | 0.00 | 0.00 | 0.00 | 86 | 1011.9 |
| 20260509145527 | 62 | 192 | 5.0 | 9.0 | 0.00 | 0.00 | 0.00 | 86 | 1011.9 |
| 20260509145415 | 62 | 186 | 5.0 | 9.0 | 0.00 | 0.00 | 0.00 | 86 | 1011.9 |
| 20260509145341 | 62 | 200 | 5.0 | 9.0 | 0.00 | 0.00 | 0.00 | 86 | 1012.0 |
| 20260509145229 | 62 | 190 | 4.0 | 9.0 | 0.00 | 0.00 | 0.00 | 86 | 1012.0 |
| 20260509145136 | 62 | 239 | 3.0 | 10.0 | 0.00 | 0.00 | 0.00 | 86 | 1011.9 |
| 20260509145051 | 62 | 207 | 3.0 | 10.0 | 0.00 | 0.00 | 0.00 | 86 | 1011.9 |
| 20260509144825 | 62 | 173 | 5.0 | 10.0 | 0.00 | 0.00 | 0.00 | 86 | 1012.0 |
| 20260509144713 | 62 | 225 | 6.0 | 10.0 | 0.00 | 0.00 | 0.00 | 86 | 1012.0 |
| 20260509144619 | 62 | 191 | 6.0 | 10.0 | 0.00 | 0.00 | 0.00 | 86 | 1012.0 |
| 20260509144527 | 62 | 202 | 6.0 | 10.0 | 0.00 | 0.00 | 0.00 | 86 | 1012.0 |
| 20260509144439 | 62 | 195 | 5.0 | 8.0 | 0.00 | 0.00 | 0.00 | 87 | 1012.0 |
| 20260509144327 | 62 | 195 | 4.0 | 8.0 | 0.00 | 0.00 | 0.00 | 87 | 1012.0 |
| 20260509144255 | 62 | 199 | 3.0 | 8.0 | 0.00 | 0.00 | 0.00 | 86 | 1011.9 |
| 20260509144113 | 62 | 223 | 3.0 | 8.0 | 0.00 | 0.00 | 0.00 | 87 | 1012.0 |
| 20260509144021 | 62 | 180 | 3.0 | 8.0 | 0.00 | 0.00 | 0.00 | 87 | 1011.9 |
| 20260509143947 | 62 | 215 | 4.0 | 8.0 | 0.00 | 0.00 | 0.00 | 86 | 1011.9 |
| 20260509143814 | 62 | 146 | 4.0 | 9.0 | 0.00 | 0.00 | 0.00 | 86 | 1012.0 |
| 20260509143725 | 62 | 202 | 4.0 | 9.0 | 0.00 | 0.00 | 0.00 | 86 | 1012.0 |
| 20260509143632 | 62 | 237 | 5.0 | 9.0 | 0.00 | 0.00 | 0.00 | 86 | 1011.9 |
| 20260509143602 | 62 | 217 | 5.0 | 9.0 | 0.00 | 0.00 | 0.00 | 86 | 1011.9 |
| 20260509143315 | 62 | 238 | 5.0 | 9.0 | 0.00 | 0.00 | 0.00 | 88 | 1012.0 |
| 20260509143243 | 62 | 217 | 4.0 | 9.0 | 0.00 | 0.00 | 0.00 | 87 | 1012.0 |
| 20260509143113 | 61 | 180 | 5.0 | 9.0 | 0.00 | 0.00 | 0.00 | 87 | 1011.9 |
| 20260509143021 | 61 | 163 | 5.0 | 9.0 | 0.00 | 0.00 | 0.00 | 88 | 1011.9 |
| 20260509142929 | 61 | 173 | 4.0 | 9.0 | 0.00 | 0.00 | 0.00 | 87 | 1011.9 |
| 20260509142817 | 61 | 150 | 3.0 | 9.0 | 0.00 | 0.00 | 0.00 | 87 | 1011.9 |
| 20260509142725 | 61 | 155 | 4.0 | 9.0 | 0.00 | 0.00 | 0.00 | 87 | 1011.9 |
| 20260509142615 | 61 | 192 | 4.0 | 9.0 | 0.00 | 0.00 | 0.00 | 87 | 1011.9 |
| 20260509142523 | 61 | 188 | 6.0 | 9.0 | 0.00 | 0.00 | 0.00 | 87 | 1011.9 |
| 20260509142430 | 61 | 188 | 6.0 | 9.0 | 0.00 | 0.00 | 0.00 | 87 | 1011.9 |
| 20260509142317 | 61 | 181 | 5.0 | 9.0 | 0.00 | 0.00 | 0.00 | 87 | 1011.9 |
| 20260509142223 | 61 | 201 | 6.0 | 9.0 | 0.00 | 0.00 | 0.00 | 87 | 1011.9 |
| 20260509142149 | 61 | 217 | 5.0 | 9.0 | 0.00 | 0.00 | 0.00 | 87 | 1011.9 |
| 20260509142104 | 61 | 214 | 5.0 | 9.0 | 0.00 | 0.00 | 0.00 | 88 | 1011.9 |
| 20260509141818 | 61 | 212 | 5.0 | 8.0 | 0.00 | 0.00 | 0.00 | 88 | 1012.0 |
| 20260509141725 | 61 | 216 | 5.0 | 8.0 | 0.00 | 0.00 | 0.00 | 88 | 1012.0 |
| 20260509141612 | 61 | 175 | 5.0 | 8.0 | 0.00 | 0.00 | 0.00 | 88 | 1012.0 |
| 20260509141519 | 61 | 186 | 5.0 | 8.0 | 0.00 | 0.00 | 0.00 | 88 | 1012.0 |
| 20260509141430 | 61 | 189 | 4.0 | 8.0 | 0.00 | 0.00 | 0.00 | 88 | 1012.0 |
| 20260509141317 | 61 | 193 | 3.0 | 8.0 | 0.00 | 0.00 | 0.00 | 88 | 1012.0 |
| 20260509141224 | 61 | 185 | 4.0 | 8.0 | 0.00 | 0.00 | 0.00 | 88 | 1012.0 |
| 20260509141130 | 61 | 186 | 5.0 | 8.0 | 0.00 | 0.00 | 0.00 | 88 | 1011.9 |
| 20260509141038 | 61 | 187 | 5.0 | 9.0 | 0.00 | 0.00 | 0.00 | 88 | 1011.9 |
| 20260509140925 | 61 | 178 | 4.0 | 6.0 | 0.00 | 0.00 | 0.00 | 88 | 1011.9 |
| 20260509140836 | 61 | 197 | 2.0 | 6.0 | 0.00 | 0.00 | 0.00 | 89 | 1012.0 |
| 20260509140722 | 61 | 150 | 1.0 | 6.0 | 0.00 | 0.00 | 0.00 | 88 | 1012.0 |
| 20260509140629 | 61 | 182 | 2.0 | 7.0 | 0.00 | 0.00 | 0.00 | 88 | 1011.9 |
| 20260509140600 | 61 | 192 | 2.0 | 7.0 | 0.00 | 0.00 | 0.00 | 88 | 1011.9 |
| 20260509140314 | 61 | 176 | 4.0 | 7.0 | 0.00 | 0.00 | 0.00 | 89 | 1011.7 |
| 20260509140227 | 61 | 176 | 3.0 | 7.0 | 0.00 | 0.00 | 0.00 | 89 | 1011.7 |
| 20260509140114 | 61 | 168 | 3.0 | 7.0 | 0.00 | 0.00 | 0.00 | 89 | 1011.7 |
| 20260509140022 | 61 | 182 | 3.0 | 7.0 | 0.00 | 0.00 | 0.00 | 89 | 1011.7 |
| 20260509135930 | 60 | 169 | 3.0 | 7.0 | 0.00 | 0.00 | 0.00 | 89 | 1011.7 |
| 20260509135817 | 60 | 195 | 2.0 | 7.0 | 0.00 | 0.00 | 0.00 | 89 | 1011.6 |
| 20260509135728 | 60 | 203 | 1.0 | 6.0 | 0.00 | 0.00 | 0.00 | 89 | 1011.6 |
| 20260509135615 | 60 | 215 | 1.0 | 6.0 | 0.00 | 0.00 | 0.00 | 89 | 1011.5 |
| 20260509135544 | 60 | 159 | 2.0 | 6.0 | 0.00 | 0.00 | 0.00 | 89 | 1011.5 |
| 20260509135430 | 60 | 233 | 2.0 | 6.0 | 0.00 | 0.00 | 0.00 | 89 | 1011.4 |
| 20260509135338 | 60 | 219 | 3.0 | 6.0 | 0.00 | 0.00 | 0.00 | 89 | 1011.3 |
| 20260509135224 | 60 | 207 | 3.0 | 6.0 | 0.00 | 0.00 | 0.00 | 89 | 1011.3 |
| 20260509135133 | 60 | 206 | 3.0 | 6.0 | 0.00 | 0.00 | 0.00 | 89 | 1011.3 |
| 20260509135046 | 60 | 166 | 2.0 | 5.0 | 0.00 | 0.00 | 0.00 | 89 | 1011.3 |
| 20260509134821 | 60 | 150 | 2.0 | 4.0 | 0.00 | 0.00 | 0.00 | 90 | 1011.3 |
| 20260509134728 | 60 | 211 | 3.0 | 4.0 | 0.00 | 0.00 | 0.00 | 90 | 1011.3 |
| 20260509134614 | 60 | 183 | 2.0 | 4.0 | 0.00 | 0.00 | 0.00 | 90 | 1011.1 |
| 20260509134527 | 60 | 183 | 1.0 | 4.0 | 0.00 | 0.00 | 0.00 | 90 | 1011.1 |
| 20260509134414 | 60 | 226 | 0.0 | 4.0 | 0.00 | 0.00 | 0.00 | 90 | 1011.2 |
| 20260509134323 | 60 | 200 | 1.0 | 4.0 | 0.00 | 0.00 | 0.00 | 90 | 1011.2 |
| 20260509134250 | 60 | 200 | 1.0 | 4.0 | 0.00 | 0.00 | 0.00 | 90 | 1011.1 |
| 20260509134117 | 60 | 200 | 2.0 | 4.0 | 0.00 | 0.00 | 0.00 | 90 | 1011.1 |
| 20260509134024 | 60 | 252 | 1.0 | 5.0 | 0.00 | 0.00 | 0.00 | 90 | 1011.1 |
| 20260509133916 | 60 | 192 | 2.0 | 5.0 | 0.00 | 0.00 | 0.00 | 90 | 1011.2 |
| 20260509133843 | 60 | 220 | 2.0 | 5.0 | 0.00 | 0.00 | 0.00 | 90 | 1011.2 |
| 20260509133730 | 60 | 227 | 2.0 | 5.0 | 0.00 | 0.00 | 0.00 | 90 | 1011.1 |
| 20260509133638 | 60 | 221 | 2.0 | 5.0 | 0.00 | 0.00 | 0.00 | 90 | 1011.2 |
| 20260509133547 | 60 | 283 | 2.0 | 5.0 | 0.00 | 0.00 | 0.00 | 90 | 1011.2 |
| 20260509133325 | 60 | 251 | 3.0 | 5.0 | 0.00 | 0.00 | 0.00 | 90 | 1011.0 |
| 20260509133212 | 60 | 253 | 3.0 | 5.0 | 0.00 | 0.00 | 0.00 | 90 | 1011.0 |
| 20260509133119 | 60 | 257 | 3.0 | 5.0 | 0.00 | 0.00 | 0.00 | 90 | 1011.1 |
| 20260509133028 | 60 | 184 | 3.0 | 5.0 | 0.00 | 0.00 | 0.00 | 90 | 1011.1 |
| 20260509132936 | 60 | 232 | 2.0 | 5.0 | 0.00 | 0.00 | 0.00 | 91 | 1011.1 |
| 20260509132822 | 60 | 254 | 2.0 | 6.0 | 0.00 | 0.00 | 0.00 | 91 | 1011.1 |
| 20260509132714 | 60 | 244 | 3.0 | 6.0 | 0.00 | 0.00 | 0.00 | 91 | 1011.1 |
| 20260509132621 | 60 | 259 | 3.0 | 6.0 | 0.00 | 0.00 | 0.00 | 91 | 1011.1 |
| 20260509132548 | 59 | 234 | 3.0 | 6.0 | 0.00 | 0.00 | 0.00 | 91 | 1011.2 |
| 20260509132414 | 59 | 161 | 3.0 | 6.0 | 0.00 | 0.00 | 0.00 | 91 | 1011.1 |
| 20260509132322 | 60 | 194 | 3.0 | 6.0 | 0.00 | 0.00 | 0.00 | 91 | 1011.1 |
| 20260509132229 | 60 | 230 | 3.0 | 7.0 | 0.00 | 0.00 | 0.00 | 91 | 1011.2 |
| 20260509132141 | 59 | 238 | 3.0 | 7.0 | 0.00 | 0.00 | 0.00 | 91 | 1011.1 |
| 20260509132052 | 59 | 249 | 2.0 | 7.0 | 0.00 | 0.00 | 0.00 | 91 | 1011.1 |
| 20260509131826 | 59 | 243 | 2.0 | 7.0 | 0.00 | 0.00 | 0.00 | 91 | 1011.1 |
| 20260509131713 | 59 | 205 | 2.0 | 7.0 | 0.00 | 0.00 | 0.00 | 91 | 1011.1 |
| 20260509131620 | 59 | 261 | 3.0 | 7.0 | 0.00 | 0.00 | 0.00 | 91 | 1011.1 |
| 20260509131551 | 59 | 226 | 3.0 | 7.0 | 0.00 | 0.00 | 0.00 | 91 | 1011.1 |
| 20260509131418 | 59 | 248 | 4.0 | 7.0 | 0.00 | 0.00 | 0.00 | 91 | 1011.2 |
| 20260509131325 | 59 | 234 | 4.0 | 7.0 | 0.00 | 0.00 | 0.00 | 91 | 1011.2 |
| 20260509131212 | 59 | 198 | 3.0 | 7.0 | 0.00 | 0.00 | 0.00 | 91 | 1011.1 |
| 20260509131120 | 59 | 204 | 2.0 | 7.0 | 0.00 | 0.00 | 0.00 | 91 | 1011.1 |
| 20260509131048 | 59 | 185 | 1.0 | 7.0 | 0.00 | 0.00 | 0.00 | 91 | 1011.1 |
| 20260509130918 | 59 | 242 | 3.0 | 7.0 | 0.00 | 0.00 | 0.00 | 91 | 1011.2 |
| 20260509130826 | 59 | 191 | 4.0 | 7.0 | 0.00 | 0.00 | 0.00 | 91 | 1011.2 |
| 20260509130714 | 59 | 207 | 3.0 | 6.0 | 0.00 | 0.00 | 0.00 | 91 | 1011.3 |
| 20260509130621 | 59 | 248 | 2.0 | 8.0 | 0.00 | 0.00 | 0.00 | 91 | 1011.3 |
| 20260509130557 | 59 | 213 | 2.0 | 8.0 | 0.00 | 0.00 | 0.00 | 91 | 1011.2 |
| 20260509130330 | 59 | 232 | 3.0 | 8.0 | 0.00 | 0.00 | 0.00 | 91 | 1011.3 |
| 20260509130218 | 59 | 202 | 4.0 | 8.0 | 0.00 | 0.00 | 0.00 | 91 | 1011.2 |
| 20260509130145 | 59 | 219 | 4.0 | 8.0 | 0.00 | 0.00 | 0.00 | 91 | 1011.2 |
| 20260509130012 | 59 | 200 | 4.0 | 8.0 | 0.00 | 0.00 | 0.00 | 91 | 1011.2 |
| 20260509125919 | 59 | 209 | 5.0 | 8.0 | 0.00 | 0.00 | 0.00 | 91 | 1011.3 |
| 20260509125830 | 59 | 253 | 5.0 | 8.0 | 0.00 | 0.00 | 0.00 | 91 | 1011.3 |
| 20260509125719 | 59 | 228 | 4.0 | 8.0 | 0.00 | 0.00 | 0.00 | 91 | 1011.2 |
| 20260509125626 | 59 | 249 | 3.0 | 8.0 | 0.00 | 0.00 | 0.00 | 91 | 1011.2 |
| 20260509125533 | 59 | 225 | 2.0 | 7.0 | 0.00 | 0.00 | 0.00 | 91 | 1011.2 |
| 20260509125419 | 59 | 275 | 3.0 | 7.0 | 0.00 | 0.00 | 0.00 | 91 | 1011.3 |
| 20260509125326 | 59 | 216 | 4.0 | 7.0 | 0.00 | 0.00 | 0.00 | 91 | 1011.3 |
| 20260509125216 | 59 | 197 | 3.0 | 7.0 | 0.00 | 0.00 | 0.00 | 91 | 1011.3 |
| 20260509125124 | 59 | 196 | 2.0 | 7.0 | 0.00 | 0.00 | 0.00 | 91 | 1011.3 |
| 20260509125056 | 59 | 221 | 2.0 | 7.0 | 0.00 | 0.00 | 0.00 | 91 | 1011.3 |
| 20260509124829 | 59 | 212 | 3.0 | 7.0 | 0.00 | 0.00 | 0.00 | 91 | 1011.3 |
| 20260509124736 | 59 | 211 | 4.0 | 7.0 | 0.00 | 0.00 | 0.00 | 91 | 1011.4 |
| 20260509124627 | 59 | 221 | 4.0 | 7.0 | 0.00 | 0.00 | 0.00 | 91 | 1011.4 |
| 20260509124514 | 59 | 192 | 4.0 | 7.0 | 0.00 | 0.00 | 0.00 | 91 | 1011.4 |
| 20260509124422 | 59 | 211 | 3.0 | 7.0 | 0.00 | 0.00 | 0.00 | 91 | 1011.4 |
| 20260509124330 | 59 | 187 | 3.0 | 7.0 | 0.00 | 0.00 | 0.00 | 91 | 1011.3 |
| 20260509124218 | 59 | 220 | 3.0 | 7.0 | 0.00 | 0.00 | 0.00 | 91 | 1011.4 |
| 20260509124127 | 59 | 203 | 4.0 | 7.0 | 0.00 | 0.00 | 0.00 | 91 | 1011.4 |
| 20260509124017 | 59 | 192 | 4.0 | 7.0 | 0.00 | 0.00 | 0.00 | 91 | 1011.4 |
| 20260509123926 | 59 | 200 | 3.0 | 7.0 | 0.00 | 0.00 | 0.00 | 91 | 1011.4 |
| 20260509123834 | 59 | 196 | 3.0 | 7.0 | 0.00 | 0.00 | 0.00 | 91 | 1011.4 |
| 20260509123720 | 59 | 192 | 4.0 | 7.0 | 0.00 | 0.00 | 0.00 | 91 | 1011.4 |
| 20260509123648 | 59 | 250 | 4.0 | 8.0 | 0.00 | 0.00 | 0.00 | 91 | 1011.4 |
| 20260509123601 | 59 | 247 | 3.0 | 8.0 | 0.00 | 0.00 | 0.00 | 91 | 1011.4 |
| 20260509123314 | 59 | 248 | 3.0 | 9.0 | 0.00 | 0.00 | 0.00 | 91 | 1011.3 |
| 20260509123221 | 59 | 232 | 3.0 | 9.0 | 0.00 | 0.00 | 0.00 | 91 | 1011.3 |
| 20260509123129 | 59 | 184 | 3.0 | 9.0 | 0.00 | 0.00 | 0.00 | 91 | 1011.4 |
| 20260509123017 | 59 | 227 | 3.0 | 9.0 | 0.00 | 0.00 | 0.00 | 91 | 1011.5 |
| 20260509122928 | 59 | 239 | 3.0 | 9.0 | 0.00 | 0.00 | 0.00 | 91 | 1011.5 |
| 20260509122816 | 59 | 263 | 4.0 | 9.0 | 0.00 | 0.00 | 0.00 | 91 | 1011.5 |
| 20260509122725 | 59 | 183 | 4.0 | 9.0 | 0.00 | 0.00 | 0.00 | 91 | 1011.5 |
| 20260509122611 | 59 | 221 | 4.0 | 9.0 | 0.00 | 0.00 | 0.00 | 91 | 1011.6 |
| 20260509122518 | 59 | 202 | 5.0 | 9.0 | 0.00 | 0.00 | 0.00 | 91 | 1011.5 |
| 20260509122426 | 59 | 182 | 7.0 | 9.0 | 0.00 | 0.00 | 0.00 | 91 | 1011.5 |
| 20260509122337 | 59 | 184 | 6.0 | 9.0 | 0.00 | 0.00 | 0.00 | 91 | 1011.6 |
| 20260509122224 | 59 | 197 | 6.0 | 9.0 | 0.00 | 0.00 | 0.00 | 91 | 1011.6 |
| 20260509122131 | 59 | 186 | 5.0 | 9.0 | 0.00 | 0.00 | 0.00 | 91 | 1011.6 |
| 20260509122100 | 59 | 205 | 5.0 | 9.0 | 0.00 | 0.00 | 0.00 | 91 | 1011.5 |
| 20260509121834 | 59 | 199 | 5.0 | 9.0 | 0.00 | 0.00 | 0.00 | 91 | 1011.4 |
| 20260509121724 | 59 | 205 | 6.0 | 9.0 | 0.00 | 0.00 | 0.00 | 91 | 1011.4 |
| 20260509121612 | 59 | 206 | 6.0 | 9.0 | 0.00 | 0.00 | 0.00 | 90 | 1011.4 |
| 20260509121539 | 59 | 195 | 6.0 | 9.0 | 0.00 | 0.00 | 0.00 | 90 | 1011.4 |
| 20260509121426 | 59 | 201 | 6.0 | 9.0 | 0.00 | 0.00 | 0.00 | 91 | 1011.4 |
| 20260509121314 | 59 | 195 | 4.0 | 8.0 | 0.00 | 0.00 | 0.00 | 91 | 1011.4 |
| 20260509121221 | 59 | 192 | 3.0 | 8.0 | 0.00 | 0.00 | 0.00 | 91 | 1011.4 |
| 20260509121112 | 59 | 194 | 4.0 | 8.0 | 0.00 | 0.00 | 0.00 | 91 | 1011.4 |
| 20260509121019 | 59 | 196 | 4.0 | 8.0 | 0.00 | 0.00 | 0.00 | 91 | 1011.4 |
| 20260509120926 | 59 | 192 | 4.0 | 8.0 | 0.00 | 0.00 | 0.00 | 91 | 1011.4 |
| 20260509120814 | 59 | 188 | 4.0 | 7.0 | 0.00 | 0.00 | 0.00 | 91 | 1011.4 |
| 20260509120721 | 59 | 190 | 3.0 | 7.0 | 0.00 | 0.00 | 0.00 | 91 | 1011.4 |
| 20260509120630 | 59 | 192 | 4.0 | 7.0 | 0.00 | 0.00 | 0.00 | 91 | 1011.4 |
| 20260509120600 | 59 | 186 | 4.0 | 7.0 | 0.00 | 0.00 | 0.00 | 91 | 1011.3 |
| 20260509120312 | 59 | 164 | 4.0 | 7.0 | 0.00 | 0.00 | 0.00 | 91 | 1011.4 |
| 20260509120220 | 59 | 182 | 4.0 | 7.0 | 0.00 | 0.00 | 0.00 | 91 | 1011.3 |
| 20260509120127 | 59 | 188 | 3.0 | 7.0 | 0.00 | 0.00 | 0.00 | 91 | 1011.3 |
| 20260509120019 | 59 | 177 | 2.0 | 7.0 | 0.00 | 0.00 | 0.00 | 91 | 1011.2 |
| 20260509115948 | 59 | 178 | 3.0 | 7.0 | 0.00 | 0.00 | 0.00 | 91 | 1011.2 |
| 20260509115814 | 59 | 175 | 4.0 | 7.0 | 0.00 | 0.00 | 0.00 | 91 | 1011.3 |
| 20260509115721 | 59 | 167 | 4.0 | 7.0 | 0.00 | 0.00 | 0.00 | 91 | 1011.3 |
| 20260509115628 | 59 | 219 | 4.0 | 7.0 | 0.00 | 0.00 | 0.00 | 91 | 1011.2 |
| 20260509115519 | 59 | 248 | 3.0 | 6.0 | 0.00 | 0.00 | 0.00 | 91 | 1011.2 |
| 20260509115426 | 59 | 200 | 3.0 | 6.0 | 0.00 | 0.00 | 0.00 | 91 | 1011.2 |
| 20260509115314 | 59 | 200 | 3.0 | 6.0 | 0.00 | 0.00 | 0.00 | 91 | 1011.2 |
| 20260509115222 | 59 | 202 | 3.0 | 6.0 | 0.00 | 0.00 | 0.00 | 91 | 1011.2 |
| 20260509115149 | 59 | 180 | 2.0 | 5.0 | 0.00 | 0.00 | 0.00 | 91 | 1011.1 |
| 20260509115123 | 59 | 225 | 1.0 | 5.0 | 0.00 | 0.00 | 0.00 | 91 | 1011.1 |
| 20260509114815 | 59 | 227 | 1.0 | 5.0 | 0.00 | 0.00 | 0.00 | 91 | 1011.0 |
| 20260509114722 | 59 | 191 | 1.0 | 5.0 | 0.00 | 0.00 | 0.00 | 91 | 1011.0 |
| 20260509114630 | 59 | 200 | 2.0 | 5.0 | 0.00 | 0.00 | 0.00 | 91 | 1010.9 |
| 20260509114518 | 59 | 195 | 3.0 | 5.0 | 0.00 | 0.00 | 0.00 | 91 | 1011.0 |
| 20260509114425 | 59 | 244 | 3.0 | 5.0 | 0.00 | 0.00 | 0.00 | 91 | 1011.0 |
| 20260509114337 | 59 | 216 | 2.0 | 5.0 | 0.00 | 0.00 | 0.00 | 91 | 1011.0 |
| 20260509114222 | 59 | 220 | 3.0 | 5.0 | 0.00 | 0.00 | 0.00 | 91 | 1011.0 |
| 20260509114129 | 59 | 215 | 3.0 | 5.0 | 0.00 | 0.00 | 0.00 | 90 | 1010.9 |
| 20260509114016 | 59 | 201 | 3.0 | 5.0 | 0.00 | 0.00 | 0.00 | 91 | 1010.9 |
| 20260509113944 | 59 | 233 | 2.0 | 5.0 | 0.00 | 0.00 | 0.00 | 90 | 1010.9 |
| 20260509113829 | 59 | 217 | 2.0 | 5.0 | 0.00 | 0.00 | 0.00 | 90 | 1010.9 |
| 20260509113720 | 59 | 228 | 2.0 | 5.0 | 0.00 | 0.00 | 0.00 | 90 | 1010.9 |
| 20260509113629 | 59 | 205 | 3.0 | 5.0 | 0.00 | 0.00 | 0.00 | 90 | 1010.8 |
| 20260509113557 | 59 | 210 | 4.0 | 5.0 | 0.00 | 0.00 | 0.00 | 90 | 1010.8 |
| 20260509113312 | 59 | 171 | 3.0 | 5.0 | 0.00 | 0.00 | 0.00 | 90 | 1010.7 |
| 20260509113224 | 59 | 203 | 2.0 | 5.0 | 0.00 | 0.00 | 0.00 | 91 | 1010.7 |
| 20260509113111 | 59 | 195 | 2.0 | 4.0 | 0.00 | 0.00 | 0.00 | 91 | 1010.7 |
| 20260509113019 | 59 | 175 | 2.0 | 4.0 | 0.00 | 0.00 | 0.00 | 91 | 1010.7 |
| 20260509112926 | 59 | 169 | 2.0 | 4.0 | 0.00 | 0.00 | 0.00 | 91 | 1010.7 |
| 20260509112814 | 59 | 193 | 2.0 | 4.0 | 0.00 | 0.00 | 0.00 | 91 | 1010.6 |
| 20260509112742 | 59 | 185 | 1.0 | 4.0 | 0.00 | 0.00 | 0.00 | 91 | 1010.6 |
| 20260509112612 | 59 | 211 | 1.0 | 3.0 | 0.00 | 0.00 | 0.00 | 90 | 1010.5 |
| 20260509112520 | 59 | 211 | 1.0 | 3.0 | 0.00 | 0.00 | 0.00 | 91 | 1010.5 |
| 20260509112427 | 59 | 211 | 1.0 | 3.0 | 0.00 | 0.00 | 0.00 | 90 | 1010.6 |
| 20260509112314 | 59 | 218 | 1.0 | 3.0 | 0.00 | 0.00 | 0.00 | 90 | 1010.5 |
| 20260509112221 | 58 | 205 | 1.0 | 3.0 | 0.00 | 0.00 | 0.00 | 90 | 1010.5 |
| 20260509112123 | 58 | 205 | 2.0 | 3.0 | 0.00 | 0.00 | 0.00 | 90 | 1010.5 |
| 20260509111816 | 58 | 209 | 2.0 | 3.0 | 0.00 | 0.00 | 0.00 | 90 | 1010.5 |
| 20260509111723 | 58 | 178 | 2.0 | 3.0 | 0.00 | 0.00 | 0.00 | 91 | 1010.5 |
| 20260509111652 | 58 | 200 | 1.0 | 3.0 | 0.00 | 0.00 | 0.00 | 91 | 1010.5 |
| 20260509111518 | 58 | 204 | 1.0 | 3.0 | 0.00 | 0.00 | 0.00 | 91 | 1010.6 |
| 20260509111429 | 58 | 229 | 1.0 | 3.0 | 0.00 | 0.00 | 0.00 | 91 | 1010.6 |
| 20260509111336 | 58 | 246 | 1.0 | 3.0 | 0.00 | 0.00 | 0.00 | 91 | 1010.6 |
| 20260509111243 | 58 | 242 | 1.0 | 5.0 | 0.00 | 0.00 | 0.00 | 90 | 1010.6 |
| 20260509111129 | 58 | 211 | 1.0 | 5.0 | 0.00 | 0.00 | 0.00 | 90 | 1010.4 |
| 20260509111037 | 58 | 194 | 2.0 | 5.0 | 0.00 | 0.00 | 0.00 | 90 | 1010.4 |
| 20260509110923 | 58 | 198 | 2.0 | 5.0 | 0.00 | 0.00 | 0.00 | 90 | 1010.4 |
| 20260509110851 | 58 | 198 | 2.0 | 5.0 | 0.00 | 0.00 | 0.00 | 90 | 1010.3 |
| 20260509110721 | 58 | 216 | 1.0 | 5.0 | 0.00 | 0.00 | 0.00 | 90 | 1010.3 |
| 20260509110600 | 58 | 182 | 2.0 | 5.0 | 0.00 | 0.00 | 0.00 | 90 | 1010.4 |
| 20260509110314 | 58 | 210 | 3.0 | 5.0 | 0.00 | 0.00 | 0.00 | 90 | 1010.6 |
| 20260509110224 | 58 | 196 | 3.0 | 5.0 | 0.00 | 0.00 | 0.00 | 90 | 1010.6 |
| 20260509110111 | 58 | 180 | 3.0 | 5.0 | 0.00 | 0.00 | 0.00 | 90 | 1010.4 |
| 20260509110019 | 58 | 194 | 3.0 | 5.0 | 0.00 | 0.00 | 0.00 | 90 | 1010.4 |
| 20260509105927 | 58 | 192 | 3.0 | 5.0 | 0.00 | 0.00 | 0.00 | 90 | 1010.4 |
| 20260509105834 | 58 | 200 | 3.0 | 5.0 | 0.00 | 0.00 | 0.00 | 90 | 1010.3 |
| 20260509105719 | 58 | 208 | 3.0 | 5.0 | 0.00 | 0.00 | 0.00 | 90 | 1010.4 |
| 20260509105646 | 58 | 177 | 2.0 | 5.0 | 0.00 | 0.00 | 0.00 | 90 | 1010.4 |
| 20260509105518 | 58 | 179 | 1.0 | 4.0 | 0.00 | 0.00 | 0.00 | 90 | 1010.4 |
| 20260509105425 | 58 | 155 | 1.0 | 4.0 | 0.00 | 0.00 | 0.00 | 90 | 1010.4 |
| 20260509105313 | 58 | 187 | 0.0 | 5.0 | 0.00 | 0.00 | 0.00 | 90 | 1010.4 |
| 20260509105241 | 58 | 202 | 0.0 | 5.0 | 0.00 | 0.00 | 0.00 | 90 | 1010.3 |
| 20260509105120 | 58 | 202 | 1.0 | 5.0 | 0.00 | 0.00 | 0.00 | 90 | 1010.3 |
| 20260509104813 | 58 | 202 | 2.0 | 5.0 | 0.00 | 0.00 | 0.00 | 90 | 1010.2 |
| 20260509104740 | 58 | 199 | 2.0 | 5.0 | 0.00 | 0.00 | 0.00 | 90 | 1010.2 |
| 20260509104627 | 58 | 191 | 2.0 | 5.0 | 0.00 | 0.00 | 0.00 | 90 | 1010.2 |
| 20260509104514 | 58 | 186 | 2.0 | 4.0 | 0.00 | 0.00 | 0.00 | 90 | 1010.1 |
| 20260509104421 | 58 | 193 | 2.0 | 4.0 | 0.00 | 0.00 | 0.00 | 90 | 1010.1 |
| 20260509104328 | 58 | 206 | 1.0 | 4.0 | 0.00 | 0.00 | 0.00 | 90 | 1010.1 |
| 20260509104218 | 58 | 218 | 1.0 | 3.0 | 0.00 | 0.00 | 0.00 | 90 | 1010.1 |
| 20260509104125 | 58 | 201 | 1.0 | 3.0 | 0.00 | 0.00 | 0.00 | 90 | 1010.1 |
| 20260509104012 | 58 | 203 | 1.0 | 3.0 | 0.00 | 0.00 | 0.00 | 90 | 1010.1 |
| 20260509103941 | 58 | 196 | 1.0 | 3.0 | 0.00 | 0.00 | 0.00 | 90 | 1010.1 |
| 20260509103827 | 58 | 192 | 0.0 | 3.0 | 0.00 | 0.00 | 0.00 | 90 | 1010.0 |
| 20260509103718 | 58 | 221 | 1.0 | 4.0 | 0.00 | 0.00 | 0.00 | 90 | 1010.1 |
| 20260509103618 | 58 | 221 | 1.0 | 4.0 | 0.00 | 0.00 | 0.00 | 90 | 1010.1 |
| 20260509103311 | 58 | 205 | 1.0 | 4.0 | 0.00 | 0.00 | 0.00 | 90 | 1010.1 |
| 20260509103219 | 58 | 205 | 1.0 | 4.0 | 0.00 | 0.00 | 0.00 | 90 | 1010.1 |
| 20260509103130 | 58 | 206 | 1.0 | 4.0 | 0.00 | 0.00 | 0.00 | 90 | 1010.1 |
| 20260509103018 | 58 | 219 | 1.0 | 4.0 | 0.00 | 0.00 | 0.00 | 90 | 1010.1 |
| 20260509102926 | 58 | 209 | 1.0 | 4.0 | 0.00 | 0.00 | 0.00 | 90 | 1010.1 |
| 20260509102814 | 58 | 199 | 1.0 | 4.0 | 0.00 | 0.00 | 0.00 | 90 | 1010.0 |
| 20260509102742 | 58 | 209 | 2.0 | 4.0 | 0.00 | 0.00 | 0.00 | 90 | 1010.0 |
| 20260509102627 | 58 | 217 | 3.0 | 4.0 | 0.00 | 0.00 | 0.00 | 90 | 1010.0 |
| 20260509102519 | 58 | 209 | 3.0 | 4.0 | 0.00 | 0.00 | 0.00 | 90 | 1009.8 |
| 20260509102427 | 58 | 200 | 2.0 | 4.0 | 0.00 | 0.00 | 0.00 | 90 | 1009.8 |
| 20260509102314 | 58 | 182 | 1.0 | 4.0 | 0.00 | 0.00 | 0.00 | 90 | 1009.8 |
| 20260509102222 | 58 | 152 | 0.0 | 4.0 | 0.00 | 0.00 | 0.00 | 90 | 1009.8 |
| 20260509102150 | 58 | 152 | 0.0 | 4.0 | 0.00 | 0.00 | 0.00 | 90 | 1009.8 |
| 20260509102124 | 58 | 150 | 0.0 | 4.0 | 0.00 | 0.00 | 0.00 | 90 | 1009.8 |
| 20260509101818 | 58 | 150 | 0.0 | 4.0 | 0.00 | 0.00 | 0.00 | 90 | 1009.8 |
| 20260509101725 | 58 | 150 | 1.0 | 4.0 | 0.00 | 0.00 | 0.00 | 90 | 1009.8 |
| 20260509101614 | 58 | 150 | 2.0 | 4.0 | 0.00 | 0.00 | 0.00 | 90 | 1009.8 |
| 20260509101543 | 58 | 136 | 2.0 | 3.0 | 0.00 | 0.00 | 0.00 | 90 | 1009.8 |
| 20260509101414 | 58 | 139 | 2.0 | 3.0 | 0.00 | 0.00 | 0.00 | 90 | 1009.7 |
| 20260509101321 | 58 | 153 | 2.0 | 3.0 | 0.00 | 0.00 | 0.00 | 90 | 1009.7 |
| 20260509101228 | 58 | 153 | 2.0 | 3.0 | 0.00 | 0.00 | 0.00 | 90 | 1009.8 |
| 20260509101116 | 58 | 145 | 2.0 | 3.0 | 0.00 | 0.00 | 0.00 | 90 | 1009.8 |
| 20260509101024 | 58 | 143 | 2.0 | 3.0 | 0.00 | 0.00 | 0.00 | 90 | 1009.8 |
| 20260509100930 | 58 | 136 | 1.0 | 4.0 | 0.00 | 0.00 | 0.00 | 90 | 1009.8 |
| 20260509100821 | 58 | 189 | 1.0 | 4.0 | 0.00 | 0.00 | 0.00 | 90 | 1009.9 |
| 20260509100729 | 58 | 190 | 0.0 | 4.0 | 0.00 | 0.00 | 0.00 | 90 | 1009.8 |
| 20260509100616 | 58 | 190 | 0.0 | 4.0 | 0.00 | 0.00 | 0.00 | 90 | 1009.9 |
| 20260509100547 | 58 | 190 | 1.0 | 4.0 | 0.00 | 0.00 | 0.00 | 90 | 1009.9 |
| 20260509100340 | 58 | 188 | 1.0 | 4.0 | 0.00 | 0.00 | 0.00 | 90 | 1009.8 |
| 20260509100230 | 58 | 175 | 2.0 | 4.0 | 0.00 | 0.00 | 0.00 | 90 | 1009.8 |
| 20260509100118 | 58 | 226 | 2.0 | 4.0 | 0.00 | 0.00 | 0.00 | 90 | 1009.9 |
| 20260509100026 | 58 | 186 | 2.0 | 4.0 | 0.00 | 0.00 | 0.00 | 90 | 1009.9 |
| 20260509095933 | 58 | 134 | 2.0 | 4.0 | 0.00 | 0.00 | 0.00 | 90 | 1009.9 |
| 20260509095819 | 58 | 139 | 1.0 | 4.0 | 0.00 | 0.00 | 0.00 | 90 | 1009.8 |
| 20260509095727 | 58 | 176 | 1.0 | 5.0 | 0.00 | 0.00 | 0.00 | 90 | 1009.8 |
| 20260509095618 | 58 | 150 | 2.0 | 5.0 | 0.00 | 0.00 | 0.00 | 90 | 1009.9 |
| 20260509095525 | 58 | 126 | 2.0 | 5.0 | 0.00 | 0.00 | 0.00 | 90 | 1009.9 |
| 20260509095412 | 58 | 153 | 2.0 | 5.0 | 0.00 | 0.00 | 0.00 | 90 | 1009.7 |
| 20260509095320 | 58 | 169 | 2.0 | 5.0 | 0.00 | 0.00 | 0.00 | 90 | 1009.7 |
| 20260509095248 | 58 | 148 | 2.0 | 5.0 | 0.00 | 0.00 | 0.00 | 90 | 1009.9 |
| 20260509095118 | 58 | 130 | 2.0 | 5.0 | 0.00 | 0.00 | 0.00 | 90 | 1010.0 |
| 20260509095047 | 58 | 181 | 2.0 | 5.0 | 0.00 | 0.00 | 0.00 | 90 | 1010.0 |
| 20260509094821 | 58 | 178 | 1.0 | 4.0 | 0.00 | 0.00 | 0.00 | 90 | 1010.0 |
| 20260509094727 | 58 | 189 | 1.0 | 4.0 | 0.00 | 0.00 | 0.00 | 90 | 1010.0 |
| 20260509094615 | 58 | 180 | 1.0 | 4.0 | 0.00 | 0.00 | 0.00 | 90 | 1010.0 |
| 20260509094548 | 58 | 199 | 1.0 | 4.0 | 0.00 | 0.00 | 0.00 | 90 | 1010.0 |
| 20260509094414 | 58 | 187 | 1.0 | 5.0 | 0.00 | 0.00 | 0.00 | 90 | 1010.0 |
| 20260509094322 | 58 | 163 | 1.0 | 5.0 | 0.00 | 0.00 | 0.00 | 90 | 1010.0 |
| 20260509094230 | 58 | 163 | 2.0 | 5.0 | 0.00 | 0.00 | 0.00 | 90 | 1010.1 |
| 20260509094119 | 58 | 157 | 2.0 | 5.0 | 0.00 | 0.00 | 0.00 | 89 | 1010.3 |
| 20260509094011 | 58 | 202 | 1.0 | 5.0 | 0.00 | 0.00 | 0.00 | 89 | 1010.3 |
| 20260509093917 | 58 | 216 | 0.0 | 5.0 | 0.00 | 0.00 | 0.00 | 89 | 1010.4 |
| 20260509093845 | 58 | 223 | 0.0 | 5.0 | 0.00 | 0.00 | 0.00 | 89 | 1010.4 |
| 20260509093731 | 58 | 223 | 2.0 | 5.0 | 0.00 | 0.00 | 0.00 | 89 | 1010.4 |
| 20260509093619 | 58 | 215 | 3.0 | 5.0 | 0.00 | 0.00 | 0.00 | 89 | 1010.5 |
| 20260509093553 | 58 | 217 | 3.0 | 6.0 | 0.00 | 0.00 | 0.00 | 89 | 1010.5 |
| 20260509093326 | 58 | 228 | 3.0 | 6.0 | 0.00 | 0.00 | 0.00 | 89 | 1010.3 |
| 20260509093213 | 58 | 220 | 3.0 | 6.0 | 0.00 | 0.00 | 0.00 | 89 | 1010.2 |
| 20260509093121 | 58 | 196 | 3.0 | 6.0 | 0.00 | 0.00 | 0.00 | 89 | 1010.2 |
| 20260509093029 | 58 | 192 | 3.0 | 6.0 | 0.00 | 0.00 | 0.00 | 89 | 1010.2 |
| 20260509092916 | 58 | 207 | 3.0 | 6.0 | 0.00 | 0.00 | 0.00 | 89 | 1010.2 |
| 20260509092827 | 58 | 200 | 4.0 | 6.0 | 0.00 | 0.00 | 0.00 | 89 | 1010.2 |
| 20260509092715 | 58 | 220 | 3.0 | 6.0 | 0.00 | 0.00 | 0.00 | 89 | 1010.4 |
| 20260509092622 | 58 | 204 | 4.0 | 6.0 | 0.00 | 0.00 | 0.00 | 89 | 1010.4 |
| 20260509092529 | 58 | 213 | 4.0 | 6.0 | 0.00 | 0.00 | 0.00 | 88 | 1010.3 |
| 20260509092416 | 58 | 213 | 4.0 | 7.0 | 0.00 | 0.00 | 0.00 | 88 | 1010.4 |
| 20260509092327 | 58 | 181 | 3.0 | 7.0 | 0.00 | 0.00 | 0.00 | 88 | 1010.4 |
| 20260509092214 | 58 | 180 | 3.0 | 7.0 | 0.00 | 0.00 | 0.00 | 88 | 1010.3 |
| 20260509092122 | 58 | 205 | 4.0 | 7.0 | 0.00 | 0.00 | 0.00 | 88 | 1010.3 |
| 20260509092053 | 58 | 198 | 4.0 | 7.0 | 0.00 | 0.00 | 0.00 | 88 | 1010.3 |
| 20260509091847 | 58 | 206 | 4.0 | 8.0 | 0.00 | 0.00 | 0.00 | 88 | 1010.2 |
| 20260509091718 | 58 | 173 | 4.0 | 8.0 | 0.00 | 0.00 | 0.00 | 88 | 1010.1 |
| 20260509091646 | 58 | 145 | 4.0 | 8.0 | 0.00 | 0.00 | 0.00 | 87 | 1010.1 |
| 20260509091552 | 58 | 175 | 4.0 | 8.0 | 0.00 | 0.00 | 0.00 | 87 | 1010.0 |
| 20260509091418 | 58 | 168 | 5.0 | 9.0 | 0.00 | 0.00 | 0.00 | 87 | 1010.1 |
| 20260509091326 | 58 | 192 | 4.0 | 9.0 | 0.00 | 0.00 | 0.00 | 87 | 1010.1 |
| 20260509091234 | 58 | 192 | 3.0 | 9.0 | 0.00 | 0.00 | 0.00 | 87 | 1010.1 |
| 20260509091120 | 58 | 175 | 4.0 | 9.0 | 0.00 | 0.00 | 0.00 | 87 | 1010.1 |
| 20260509091011 | 58 | 183 | 6.0 | 11.0 | 0.00 | 0.00 | 0.00 | 87 | 1010.0 |
| 20260509090919 | 58 | 163 | 6.0 | 11.0 | 0.00 | 0.00 | 0.00 | 87 | 1010.1 |
| 20260509090827 | 58 | 179 | 6.0 | 11.0 | 0.00 | 0.00 | 0.00 | 87 | 1010.1 |
| 20260509090734 | 58 | 193 | 5.0 | 11.0 | 0.00 | 0.00 | 0.00 | 87 | 1010.1 |
| 20260509090620 | 58 | 186 | 5.0 | 11.0 | 0.00 | 0.00 | 0.00 | 87 | 1010.1 |
| 20260509090553 | 58 | 175 | 5.0 | 11.0 | 0.00 | 0.00 | 0.00 | 87 | 1010.2 |
| 20260509090327 | 58 | 139 | 6.0 | 11.0 | 0.00 | 0.00 | 0.00 | 86 | 1010.2 |
| 20260509090214 | 58 | 175 | 5.0 | 12.0 | 0.00 | 0.00 | 0.00 | 86 | 1010.1 |
| 20260509090122 | 58 | 160 | 4.0 | 8.0 | 0.00 | 0.00 | 0.00 | 86 | 1010.1 |
| 20260509090029 | 59 | 146 | 4.0 | 8.0 | 0.00 | 0.00 | 0.00 | 86 | 1010.3 |
| 20260509085921 | 58 | 141 | 4.0 | 8.0 | 0.00 | 0.00 | 0.00 | 86 | 1010.3 |
| 20260509085829 | 59 | 160 | 4.0 | 9.0 | 0.00 | 0.00 | 0.00 | 86 | 1010.2 |
| 20260509085716 | 58 | 179 | 4.0 | 9.0 | 0.00 | 0.00 | 0.00 | 86 | 1010.3 |
| 20260509085624 | 58 | 180 | 4.0 | 9.0 | 0.00 | 0.00 | 0.00 | 86 | 1010.3 |
| 20260509085531 | 59 | 185 | 4.0 | 9.0 | 0.00 | 0.00 | 0.00 | 86 | 1010.3 |
| 20260509085421 | 59 | 173 | 5.0 | 9.0 | 0.00 | 0.00 | 0.00 | 86 | 1010.3 |
| 20260509085330 | 59 | 179 | 5.0 | 9.0 | 0.00 | 0.00 | 0.00 | 86 | 1010.3 |
| 20260509085218 | 59 | 126 | 5.0 | 9.0 | 0.00 | 0.00 | 0.00 | 86 | 1010.2 |
| 20260509085124 | 59 | 147 | 5.0 | 9.0 | 0.00 | 0.00 | 0.00 | 85 | 1010.2 |
| 20260509085054 | 59 | 124 | 5.0 | 9.0 | 0.00 | 0.00 | 0.00 | 85 | 1010.2 |
| 20260509084811 | 59 | 176 | 4.0 | 8.0 | 0.00 | 0.00 | 0.00 | 85 | 1010.4 |
| 20260509084718 | 59 | 182 | 4.0 | 8.0 | 0.00 | 0.00 | 0.00 | 85 | 1010.4 |
| 20260509084626 | 59 | 166 | 5.0 | 8.0 | 0.00 | 0.00 | 0.00 | 85 | 1010.4 |
| 20260509084514 | 59 | 153 | 5.0 | 8.0 | 0.00 | 0.00 | 0.00 | 85 | 1010.4 |
| 20260509084441 | 59 | 198 | 4.0 | 7.0 | 0.00 | 0.00 | 0.00 | 85 | 1010.5 |
| 20260509084326 | 59 | 180 | 4.0 | 6.0 | 0.00 | 0.00 | 0.00 | 85 | 1010.5 |
| 20260509084218 | 59 | 182 | 4.0 | 6.0 | 0.00 | 0.00 | 0.00 | 85 | 1010.5 |
| 20260509084125 | 59 | 184 | 4.0 | 6.0 | 0.00 | 0.00 | 0.00 | 85 | 1010.5 |
| 20260509084013 | 59 | 200 | 3.0 | 7.0 | 0.00 | 0.00 | 0.00 | 85 | 1010.6 |
| 20260509083941 | 59 | 165 | 3.0 | 7.0 | 0.00 | 0.00 | 0.00 | 85 | 1010.6 |
| 20260509083827 | 59 | 182 | 3.0 | 7.0 | 0.00 | 0.00 | 0.00 | 85 | 1010.5 |
| 20260509083715 | 58 | 168 | 4.0 | 8.0 | 0.00 | 0.00 | 0.00 | 85 | 1010.5 |
| 20260509083627 | 59 | 181 | 4.0 | 8.0 | 0.00 | 0.00 | 0.00 | 85 | 1010.5 |
| 20260509083557 | 58 | 185 | 4.0 | 8.0 | 0.00 | 0.00 | 0.00 | 85 | 1010.5 |
| 20260509083330 | 58 | 197 | 3.0 | 8.0 | 0.00 | 0.00 | 0.00 | 85 | 1010.6 |
| 20260509083218 | 59 | 165 | 3.0 | 8.0 | 0.00 | 0.00 | 0.00 | 85 | 1010.7 |
| 20260509083146 | 59 | 186 | 4.0 | 8.0 | 0.00 | 0.00 | 0.00 | 85 | 1010.7 |
| 20260509083016 | 58 | 198 | 5.0 | 8.0 | 0.00 | 0.00 | 0.00 | 85 | 1010.6 |
| 20260509082924 | 58 | 191 | 4.0 | 8.0 | 0.00 | 0.00 | 0.00 | 85 | 1010.6 |
| 20260509082851 | 58 | 171 | 4.0 | 8.0 | 0.00 | 0.00 | 0.00 | 85 | 1010.7 |
| 20260509082737 | 58 | 181 | 4.0 | 7.0 | 0.00 | 0.00 | 0.00 | 85 | 1010.8 |
| 20260509082624 | 58 | 182 | 4.0 | 7.0 | 0.00 | 0.00 | 0.00 | 85 | 1010.8 |
| 20260509082531 | 58 | 186 | 4.0 | 7.0 | 0.00 | 0.00 | 0.00 | 85 | 1010.9 |
| 20260509082423 | 58 | 180 | 4.0 | 8.0 | 0.00 | 0.00 | 0.00 | 85 | 1010.9 |
| 20260509082330 | 58 | 178 | 3.0 | 8.0 | 0.00 | 0.00 | 0.00 | 85 | 1010.8 |
| 20260509082237 | 58 | 163 | 2.0 | 8.0 | 0.00 | 0.00 | 0.00 | 85 | 1010.8 |
| 20260509082124 | 58 | 180 | 4.0 | 8.0 | 0.00 | 0.00 | 0.00 | 85 | 1010.8 |
| 20260509082055 | 58 | 151 | 4.0 | 8.0 | 0.00 | 0.00 | 0.00 | 85 | 1010.8 |
| 20260509081812 | 58 | 191 | 5.0 | 8.0 | 0.00 | 0.00 | 0.00 | 86 | 1010.9 |
| 20260509081719 | 58 | 177 | 5.0 | 8.0 | 0.00 | 0.00 | 0.00 | 86 | 1010.8 |
| 20260509081626 | 58 | 192 | 4.0 | 8.0 | 0.00 | 0.00 | 0.00 | 86 | 1010.8 |
| 20260509081515 | 58 | 190 | 3.0 | 5.0 | 0.00 | 0.00 | 0.00 | 86 | 1010.8 |
| 20260509081422 | 58 | 163 | 3.0 | 5.0 | 0.00 | 0.00 | 0.00 | 86 | 1010.8 |
| 20260509081313 | 58 | 173 | 3.0 | 5.0 | 0.00 | 0.00 | 0.00 | 86 | 1010.8 |
| 20260509081220 | 58 | 178 | 2.0 | 5.0 | 0.00 | 0.00 | 0.00 | 86 | 1010.8 |
| 20260509081128 | 58 | 180 | 2.0 | 5.0 | 0.00 | 0.00 | 0.00 | 86 | 1010.9 |
| 20260509081016 | 58 | 201 | 2.0 | 5.0 | 0.00 | 0.00 | 0.00 | 86 | 1010.8 |
| 20260509080923 | 58 | 206 | 2.0 | 5.0 | 0.00 | 0.00 | 0.00 | 86 | 1010.8 |
| 20260509080815 | 58 | 203 | 1.0 | 5.0 | 0.00 | 0.00 | 0.00 | 86 | 1010.8 |
| 20260509080742 | 58 | 198 | 1.0 | 4.0 | 0.00 | 0.00 | 0.00 | 86 | 1010.8 |
| 20260509080648 | 58 | 198 | 1.0 | 4.0 | 0.00 | 0.00 | 0.00 | 86 | 1010.7 |
| 20260509080618 | 58 | 198 | 1.0 | 5.0 | 0.00 | 0.00 | 0.00 | 86 | 1010.7 |
| 20260509080351 | 58 | 209 | 1.0 | 5.0 | 0.00 | 0.00 | 0.00 | 87 | 1010.9 |
| 20260509080216 | 58 | 183 | 2.0 | 5.0 | 0.00 | 0.00 | 0.00 | 87 | 1010.9 |
| 20260509080127 | 58 | 196 | 2.0 | 5.0 | 0.00 | 0.00 | 0.00 | 87 | 1010.9 |
| 20260509080015 | 58 | 173 | 2.0 | 5.0 | 0.00 | 0.00 | 0.00 | 87 | 1010.9 |
| 20260509075923 | 58 | 197 | 1.0 | 5.0 | 0.00 | 0.00 | 0.00 | 87 | 1010.9 |
| 20260509075831 | 58 | 187 | 1.0 | 5.0 | 0.00 | 0.00 | 0.00 | 87 | 1011.0 |
| 20260509075717 | 58 | 221 | 2.0 | 5.0 | 0.00 | 0.00 | 0.00 | 87 | 1011.0 |
| 20260509075624 | 57 | 173 | 3.0 | 5.0 | 0.00 | 0.00 | 0.00 | 87 | 1011.0 |
| 20260509075535 | 57 | 196 | 2.0 | 5.0 | 0.00 | 0.00 | 0.00 | 87 | 1011.0 |
| 20260509075422 | 57 | 182 | 1.0 | 3.0 | 0.00 | 0.00 | 0.00 | 87 | 1011.0 |
| 20260509075329 | 57 | 215 | 1.0 | 3.0 | 0.00 | 0.00 | 0.00 | 87 | 1011.0 |
| 20260509075218 | 57 | 200 | 1.0 | 3.0 | 0.00 | 0.00 | 0.00 | 88 | 1011.1 |
| 20260509075126 | 57 | 213 | 1.0 | 3.0 | 0.00 | 0.00 | 0.00 | 88 | 1011.1 |
| 20260509075059 | 57 | 240 | 1.0 | 3.0 | 0.00 | 0.00 | 0.00 | 88 | 1011.1 |
| 20260509074812 | 57 | 200 | 1.0 | 7.0 | 0.00 | 0.00 | 0.00 | 88 | 1010.8 |
| 20260509074720 | 57 | 200 | 1.0 | 7.0 | 0.00 | 0.00 | 0.00 | 88 | 1010.8 |
| 20260509074628 | 57 | 200 | 1.0 | 7.0 | 0.00 | 0.00 | 0.00 | 88 | 1010.7 |
| 20260509074515 | 57 | 161 | 1.0 | 7.0 | 0.00 | 0.00 | 0.00 | 88 | 1010.4 |
| 20260509074426 | 57 | 183 | 1.0 | 7.0 | 0.00 | 0.00 | 0.00 | 88 | 1010.4 |
| 20260509074314 | 57 | 204 | 2.0 | 7.0 | 0.00 | 0.00 | 0.00 | 88 | 1010.5 |
| 20260509074221 | 57 | 191 | 3.0 | 7.0 | 0.00 | 0.00 | 0.00 | 88 | 1010.5 |
| 20260509074128 | 57 | 174 | 4.0 | 7.0 | 0.00 | 0.00 | 0.00 | 88 | 1010.5 |
| 20260509074034 | 57 | 200 | 5.0 | 7.0 | 0.00 | 0.00 | 0.00 | 88 | 1010.6 |
| 20260509073919 | 56 | 169 | 5.0 | 7.0 | 0.00 | 0.00 | 0.00 | 88 | 1010.6 |
| 20260509073829 | 56 | 193 | 5.0 | 6.0 | 0.00 | 0.00 | 0.00 | 88 | 1010.6 |
| 20260509073717 | 56 | 176 | 3.0 | 6.0 | 0.00 | 0.00 | 0.00 | 88 | 1010.6 |
| 20260509073625 | 56 | 190 | 2.0 | 5.0 | 0.00 | 0.00 | 0.00 | 88 | 1010.6 |
| 20260509073555 | 56 | 209 | 1.0 | 4.0 | 0.00 | 0.00 | 0.00 | 88 | 1010.6 |
| 20260509073312 | 56 | 178 | 1.0 | 4.0 | 0.00 | 0.00 | 0.00 | 89 | 1010.5 |
| 20260509073220 | 56 | 163 | 1.0 | 4.0 | 0.00 | 0.00 | 0.00 | 89 | 1010.5 |
| 20260509073128 | 56 | 163 | 1.0 | 4.0 | 0.00 | 0.00 | 0.00 | 89 | 1010.4 |
| 20260509073014 | 56 | 163 | 1.0 | 4.0 | 0.00 | 0.00 | 0.00 | 89 | 1010.5 |
| 20260509072942 | 56 | 163 | 2.0 | 4.0 | 0.00 | 0.00 | 0.00 | 89 | 1010.5 |
| 20260509072828 | 56 | 152 | 2.0 | 4.0 | 0.00 | 0.00 | 0.00 | 89 | 1010.4 |
| 20260509072719 | 56 | 146 | 1.0 | 4.0 | 0.00 | 0.00 | 0.00 | 89 | 1010.4 |
| 20260509072626 | 56 | 157 | 1.0 | 3.0 | 0.00 | 0.00 | 0.00 | 89 | 1010.4 |
| 20260509072514 | 56 | 186 | 1.0 | 3.0 | 0.00 | 0.00 | 0.00 | 89 | 1010.5 |
| 20260509072422 | 56 | 186 | 1.0 | 3.0 | 0.00 | 0.00 | 0.00 | 89 | 1010.5 |
| 20260509072330 | 56 | 186 | 1.0 | 3.0 | 0.00 | 0.00 | 0.00 | 89 | 1010.6 |
| 20260509072221 | 56 | 186 | 2.0 | 3.0 | 0.00 | 0.00 | 0.00 | 89 | 1010.6 |
| 20260509072129 | 56 | 186 | 2.0 | 3.0 | 0.00 | 0.00 | 0.00 | 89 | 1010.7 |
| 20260509072100 | 56 | 185 | 1.0 | 3.0 | 0.00 | 0.00 | 0.00 | 89 | 1010.7 |
| 20260509071814 | 55 | 161 | 1.0 | 3.0 | 0.00 | 0.00 | 0.00 | 89 | 1010.7 |
| 20260509071720 | 55 | 161 | 1.0 | 3.0 | 0.00 | 0.00 | 0.00 | 89 | 1010.7 |
| 20260509071631 | 55 | 161 | 0.0 | 3.0 | 0.00 | 0.00 | 0.00 | 89 | 1010.7 |
| 20260509071539 | 55 | 161 | 0.0 | 3.0 | 0.00 | 0.00 | 0.00 | 89 | 1010.6 |
| 20260509071425 | 55 | 161 | 0.0 | 3.0 | 0.00 | 0.00 | 0.00 | 89 | 1010.6 |
| 20260509071311 | 55 | 161 | 1.0 | 3.0 | 0.00 | 0.00 | 0.00 | 90 | 1010.6 |
| 20260509071220 | 55 | 161 | 1.0 | 3.0 | 0.00 | 0.00 | 0.00 | 90 | 1010.6 |
| 20260509071148 | 55 | 140 | 1.0 | 3.0 | 0.00 | 0.00 | 0.00 | 90 | 1010.5 |
| 20260509071018 | 55 | 138 | 1.0 | 3.0 | 0.00 | 0.00 | 0.00 | 90 | 1010.5 |
| 20260509070946 | 55 | 172 | 1.0 | 3.0 | 0.00 | 0.00 | 0.00 | 90 | 1010.5 |
| 20260509070812 | 55 | 172 | 1.0 | 3.0 | 0.00 | 0.00 | 0.00 | 90 | 1010.5 |
| 20260509070720 | 55 | 172 | 1.0 | 3.0 | 0.00 | 0.00 | 0.00 | 89 | 1010.5 |
| 20260509070628 | 55 | 167 | 1.0 | 3.0 | 0.00 | 0.00 | 0.00 | 90 | 1010.4 |
| 20260509070601 | 55 | 180 | 0.0 | 3.0 | 0.00 | 0.00 | 0.00 | 90 | 1010.4 |
| 20260509070314 | 55 | 175 | 1.0 | 3.0 | 0.00 | 0.00 | 0.00 | 90 | 1010.5 |
| 20260509070223 | 55 | 145 | 2.0 | 3.0 | 0.00 | 0.00 | 0.00 | 90 | 1010.5 |
| 20260509070130 | 55 | 134 | 2.0 | 3.0 | 0.00 | 0.00 | 0.00 | 90 | 1010.5 |
| 20260509070017 | 55 | 155 | 1.0 | 2.0 | 0.00 | 0.00 | 0.00 | 89 | 1010.5 |
| 20260509065924 | 55 | 227 | 0.0 | 2.0 | 0.00 | 0.00 | 0.00 | 89 | 1010.5 |
| 20260509065816 | 55 | 227 | 0.0 | 2.0 | 0.00 | 0.00 | 0.00 | 89 | 1010.6 |
| 20260509065723 | 55 | 229 | 0.0 | 2.0 | 0.00 | 0.00 | 0.00 | 89 | 1010.6 |
| 20260509065629 | 55 | 271 | 0.0 | 2.0 | 0.00 | 0.00 | 0.00 | 89 | 1010.7 |
| 20260509065517 | 55 | 271 | 0.0 | 2.0 | 0.00 | 0.00 | 0.00 | 89 | 1010.7 |
| 20260509065444 | 55 | 271 | 0.0 | 2.0 | 0.00 | 0.00 | 0.00 | 89 | 1010.7 |
| 20260509065330 | 55 | 271 | 0.0 | 2.0 | 0.00 | 0.00 | 0.00 | 89 | 1010.7 |
| 20260509065241 | 55 | 271 | 1.0 | 2.0 | 0.00 | 0.00 | 0.00 | 89 | 1010.7 |
| 20260509065147 | 55 | 271 | 1.0 | 2.0 | 0.00 | 0.00 | 0.00 | 89 | 1010.8 |
| 20260509065056 | 55 | 271 | 1.0 | 2.0 | 0.00 | 0.00 | 0.00 | 89 | 1010.7 |
| 20260509064829 | 55 | 271 | 1.0 | 2.0 | 0.00 | 0.00 | 0.00 | 89 | 1010.8 |
| 20260509064738 | 55 | 271 | 0.0 | 1.0 | 0.00 | 0.00 | 0.00 | 89 | 1010.8 |
| 20260509064624 | 55 | 271 | 0.0 | 0.0 | 0.00 | 0.00 | 0.00 | 88 | 1010.8 |
| 20260509064517 | 55 | 271 | 0.0 | 0.0 | 0.00 | 0.00 | 0.00 | 88 | 1010.7 |
| 20260509064424 | 55 | 271 | 0.0 | 0.0 | 0.00 | 0.00 | 0.00 | 88 | 1010.7 |
| 20260509064331 | 55 | 271 | 0.0 | 0.0 | 0.00 | 0.00 | 0.00 | 89 | 1010.6 |
| 20260509064218 | 55 | 271 | 0.0 | 0.0 | 0.00 | 0.00 | 0.00 | 88 | 1010.6 |
| 20260509064124 | 55 | 271 | 0.0 | 0.0 | 0.00 | 0.00 | 0.00 | 88 | 1010.6 |
| 20260509064016 | 55 | 271 | 0.0 | 0.0 | 0.00 | 0.00 | 0.00 | 88 | 1010.6 |
| 20260509063924 | 55 | 271 | 0.0 | 0.0 | 0.00 | 0.00 | 0.00 | 88 | 1010.6 |
| 20260509063811 | 55 | 271 | 0.0 | 0.0 | 0.00 | 0.00 | 0.00 | 88 | 1010.5 |
| 20260509063719 | 55 | 271 | 0.0 | 0.0 | 0.00 | 0.00 | 0.00 | 88 | 1010.5 |
| 20260509063647 | 55 | 271 | 0.0 | 0.0 | 0.00 | 0.00 | 0.00 | 88 | 1010.5 |
| 20260509063621 | 55 | 271 | 0.0 | 0.0 | 0.00 | 0.00 | 0.00 | 88 | 1010.4 |
| 20260509063314 | 55 | 271 | 0.0 | 0.0 | 0.00 | 0.00 | 0.00 | 88 | 1010.5 |
| 20260509063221 | 55 | 271 | 0.0 | 0.0 | 0.00 | 0.00 | 0.00 | 88 | 1010.5 |
| 20260509063128 | 55 | 271 | 0.0 | 0.0 | 0.00 | 0.00 | 0.00 | 88 | 1010.6 |
| 20260509063035 | 55 | 271 | 0.0 | 0.0 | 0.00 | 0.00 | 0.00 | 88 | 1010.5 |
| 20260509062922 | 55 | 271 | 0.0 | 0.0 | 0.00 | 0.00 | 0.00 | 88 | 1010.5 |
| 20260509062814 | 55 | 271 | 0.0 | 0.0 | 0.00 | 0.00 | 0.00 | 88 | 1010.5 |
| 20260509062722 | 55 | 271 | 0.0 | 0.0 | 0.00 | 0.00 | 0.00 | 88 | 1010.5 |
| 20260509062650 | 55 | 271 | 0.0 | 0.0 | 0.00 | 0.00 | 0.00 | 88 | 1010.5 |
| 20260509062516 | 55 | 271 | 0.0 | 0.0 | 0.00 | 0.00 | 0.00 | 88 | 1010.5 |
| 20260509062423 | 55 | 271 | 0.0 | 0.0 | 0.00 | 0.00 | 0.00 | 88 | 1010.5 |
| 20260509062314 | 55 | 271 | 0.0 | 0.0 | 0.00 | 0.00 | 0.00 | 88 | 1010.4 |
| 20260509062222 | 55 | 271 | 0.0 | 0.0 | 0.00 | 0.00 | 0.00 | 88 | 1010.4 |
| 20260509062130 | 55 | 271 | 0.0 | 0.0 | 0.00 | 0.00 | 0.00 | 88 | 1010.5 |
| 20260509062101 | 55 | 271 | 0.0 | 0.0 | 0.00 | 0.00 | 0.00 | 88 | 1010.4 |
| 20260509061836 | 55 | 271 | 0.0 | 1.0 | 0.00 | 0.00 | 0.00 | 88 | 1010.5 |
| 20260509061726 | 55 | 271 | 0.0 | 1.0 | 0.00 | 0.00 | 0.00 | 88 | 1010.5 |
| 20260509061633 | 55 | 271 | 0.0 | 1.0 | 0.00 | 0.00 | 0.00 | 88 | 1010.6 |
| 20260509061541 | 55 | 271 | 0.0 | 1.0 | 0.00 | 0.00 | 0.00 | 87 | 1010.6 |
| 20260509061428 | 55 | 271 | 0.0 | 1.0 | 0.00 | 0.00 | 0.00 | 87 | 1010.5 |
| 20260509061335 | 55 | 271 | 0.0 | 1.0 | 0.00 | 0.00 | 0.00 | 87 | 1010.5 |
| 20260509061241 | 55 | 271 | 0.0 | 1.0 | 0.00 | 0.00 | 0.00 | 87 | 1010.5 |
| 20260509061148 | 55 | 271 | 0.0 | 1.0 | 0.00 | 0.00 | 0.00 | 87 | 1010.5 |
| 20260509061014 | 55 | 271 | 0.0 | 1.0 | 0.00 | 0.00 | 0.00 | 87 | 1010.5 |
| 20260509060927 | 55 | 277 | 0.0 | 0.0 | 0.00 | 0.00 | 0.00 | 87 | 1010.5 |
| 20260509060815 | 55 | 279 | 0.0 | 0.0 | 0.00 | 0.00 | 0.00 | 87 | 1010.6 |
| 20260509060722 | 55 | 279 | 0.0 | 0.0 | 0.00 | 0.00 | 0.00 | 87 | 1010.6 |
| 20260509060605 | 56 | 279 | 0.0 | 0.0 | 0.00 | 0.00 | 0.00 | 87 | 1010.6 |
| 20260509060339 | 56 | 279 | 0.0 | 0.0 | 0.00 | 0.00 | 0.00 | 87 | 1010.8 |
| 20260509060224 | 56 | 279 | 0.0 | 0.0 | 0.00 | 0.00 | 0.00 | 86 | 1010.8 |
| 20260509060112 | 56 | 279 | 0.0 | 0.0 | 0.00 | 0.00 | 0.00 | 86 | 1010.8 |
| 20260509060020 | 56 | 279 | 0.0 | 0.0 | 0.00 | 0.00 | 0.00 | 86 | 1010.8 |
| 20260509055927 | 56 | 279 | 0.0 | 0.0 | 0.00 | 0.00 | 0.00 | 86 | 1010.8 |
| 20260509055818 | 56 | 279 | 0.0 | 1.0 | 0.00 | 0.00 | 0.00 | 86 | 1010.8 |
| 20260509055725 | 56 | 279 | 0.0 | 3.0 | 0.00 | 0.00 | 0.00 | 86 | 1010.8 |
| 20260509055612 | 56 | 279 | 0.0 | 3.0 | 0.00 | 0.00 | 0.00 | 86 | 1010.8 |
| 20260509055541 | 56 | 279 | 0.0 | 3.0 | 0.00 | 0.00 | 0.00 | 86 | 1010.8 |
| 20260509055427 | 56 | 279 | 0.0 | 3.0 | 0.00 | 0.00 | 0.00 | 86 | 1010.8 |
| 20260509055314 | 56 | 279 | 0.0 | 3.0 | 0.00 | 0.00 | 0.00 | 86 | 1010.8 |
| 20260509055247 | 56 | 279 | 1.0 | 3.0 | 0.00 | 0.00 | 0.00 | 86 | 1010.8 |
| 20260509055132 | 56 | 279 | 1.0 | 3.0 | 0.00 | 0.00 | 0.00 | 86 | 1010.8 |
| 20260509055102 | 56 | 279 | 1.0 | 3.0 | 0.00 | 0.00 | 0.00 | 85 | 1010.8 |
| 20260509054835 | 56 | 142 | 0.0 | 0.0 | 0.00 | 0.00 | 0.00 | 85 | 1010.8 |
| 20260509054721 | 56 | 142 | 0.0 | 0.0 | 0.00 | 0.00 | 0.00 | 85 | 1010.8 |
| 20260509054614 | 56 | 142 | 0.0 | 0.0 | 0.00 | 0.00 | 0.00 | 85 | 1010.8 |
| 20260509054521 | 57 | 142 | 0.0 | 0.0 | 0.00 | 0.00 | 0.00 | 85 | 1010.8 |
| 20260509054427 | 57 | 142 | 0.0 | 0.0 | 0.00 | 0.00 | 0.00 | 85 | 1010.7 |
| 20260509054315 | 57 | 142 | 0.0 | 0.0 | 0.00 | 0.00 | 0.00 | 85 | 1010.7 |
| 20260509054244 | 57 | 142 | 0.0 | 0.0 | 0.00 | 0.00 | 0.00 | 85 | 1010.7 |
| 20260509054129 | 57 | 142 | 0.0 | 0.0 | 0.00 | 0.00 | 0.00 | 85 | 1010.8 |
| 20260509054021 | 57 | 142 | 0.0 | 0.0 | 0.00 | 0.00 | 0.00 | 85 | 1010.8 |
| 20260509053929 | 57 | 142 | 0.0 | 0.0 | 0.00 | 0.00 | 0.00 | 85 | 1010.8 |
| 20260509053817 | 57 | 142 | 0.0 | 0.0 | 0.00 | 0.00 | 0.00 | 85 | 1010.8 |
| 20260509053724 | 57 | 142 | 0.0 | 0.0 | 0.00 | 0.00 | 0.00 | 85 | 1010.8 |
| 20260509053612 | 57 | 142 | 0.0 | 0.0 | 0.00 | 0.00 | 0.00 | 84 | 1010.9 |
| 20260509053546 | 57 | 142 | 0.0 | 0.0 | 0.00 | 0.00 | 0.00 | 84 | 1010.9 |
| 20260509053319 | 57 | 142 | 0.0 | 0.0 | 0.00 | 0.00 | 0.00 | 84 | 1011.0 |
| 20260509053226 | 57 | 142 | 0.0 | 0.0 | 0.00 | 0.00 | 0.00 | 84 | 1011.0 |
| 20260509053115 | 57 | 142 | 0.0 | 0.0 | 0.00 | 0.00 | 0.00 | 84 | 1011.1 |
| 20260509053022 | 57 | 142 | 0.0 | 0.0 | 0.00 | 0.00 | 0.00 | 84 | 1011.1 |
| 20260509052913 | 57 | 142 | 0.0 | 0.0 | 0.00 | 0.00 | 0.00 | 84 | 1011.1 |
| 20260509052821 | 57 | 142 | 0.0 | 0.0 | 0.00 | 0.00 | 0.00 | 83 | 1011.1 |
| 20260509052727 | 57 | 142 | 0.0 | 0.0 | 0.00 | 0.00 | 0.00 | 83 | 1011.1 |
| 20260509052616 | 57 | 142 | 0.0 | 0.0 | 0.00 | 0.00 | 0.00 | 83 | 1011.1 |
| 20260509052543 | 57 | 142 | 0.0 | 0.0 | 0.00 | 0.00 | 0.00 | 83 | 1011.1 |
| 20260509052413 | 58 | 142 | 0.0 | 0.0 | 0.00 | 0.00 | 0.00 | 83 | 1011.1 |
| 20260509052319 | 58 | 142 | 0.0 | 0.0 | 0.00 | 0.00 | 0.00 | 83 | 1011.1 |
| 20260509052226 | 58 | 142 | 0.0 | 0.0 | 0.00 | 0.00 | 0.00 | 83 | 1011.1 |
| 20260509052154 | 58 | 142 | 0.0 | 0.0 | 0.00 | 0.00 | 0.00 | 83 | 1011.1 |
| 20260509052125 | 58 | 142 | 0.0 | 1.0 | 0.00 | 0.00 | 0.00 | 83 | 1011.1 |
| 20260509051818 | 58 | 142 | 0.0 | 1.0 | 0.00 | 0.00 | 0.00 | 82 | 1011.2 |
| 20260509051730 | 58 | 142 | 0.0 | 1.0 | 0.00 | 0.00 | 0.00 | 82 | 1011.2 |
| 20260509051618 | 58 | 142 | 0.0 | 1.0 | 0.00 | 0.00 | 0.00 | 82 | 1011.2 |
| 20260509051526 | 58 | 142 | 0.0 | 1.0 | 0.00 | 0.00 | 0.00 | 82 | 1011.2 |
| 20260509051433 | 58 | 142 | 0.0 | 1.0 | 0.00 | 0.00 | 0.00 | 82 | 1011.1 |
| 20260509051319 | 58 | 142 | 0.0 | 1.0 | 0.00 | 0.00 | 0.00 | 82 | 1011.1 |
| 20260509051226 | 58 | 142 | 0.0 | 1.0 | 0.00 | 0.00 | 0.00 | 82 | 1011.1 |
| 20260509051117 | 58 | 142 | 0.0 | 1.0 | 0.00 | 0.00 | 0.00 | 82 | 1011.2 |
| 20260509051023 | 58 | 142 | 0.0 | 1.0 | 0.00 | 0.00 | 0.00 | 82 | 1011.2 |
| 20260509050930 | 58 | 142 | 0.0 | 1.0 | 0.00 | 0.00 | 0.00 | 82 | 1011.1 |
| 20260509050818 | 58 | 142 | 0.0 | 3.0 | 0.00 | 0.00 | 0.00 | 82 | 1011.2 |
| 20260509050725 | 58 | 142 | 0.0 | 3.0 | 0.00 | 0.00 | 0.00 | 82 | 1011.2 |
| 20260509050633 | 58 | 142 | 0.0 | 3.0 | 0.00 | 0.00 | 0.00 | 82 | 1011.1 |
| 20260509050608 | 58 | 142 | 0.0 | 3.0 | 0.00 | 0.00 | 0.00 | 82 | 1011.1 |
| 20260509050320 | 58 | 142 | 0.0 | 3.0 | 0.00 | 0.00 | 0.00 | 82 | 1011.2 |
| 20260509050228 | 58 | 142 | 1.0 | 3.0 | 0.00 | 0.00 | 0.00 | 82 | 1011.2 |
| 20260509050115 | 58 | 142 | 1.0 | 3.0 | 0.00 | 0.00 | 0.00 | 82 | 1011.1 |
| 20260509050042 | 58 | 142 | 1.0 | 3.0 | 0.00 | 0.00 | 0.00 | 82 | 1011.1 |
| 20260509045912 | 58 | 140 | 1.0 | 3.0 | 0.00 | 0.00 | 0.00 | 82 | 1011.0 |
| 20260509045818 | 58 | 132 | 2.0 | 3.0 | 0.00 | 0.00 | 0.00 | 82 | 1011.0 |
| 20260509045725 | 58 | 128 | 2.0 | 3.0 | 0.00 | 0.00 | 0.00 | 82 | 1011.0 |
| 20260509045613 | 58 | 140 | 2.0 | 3.0 | 0.00 | 0.00 | 0.00 | 82 | 1011.1 |
| 20260509045522 | 58 | 134 | 1.0 | 3.0 | 0.00 | 0.00 | 0.00 | 82 | 1011.1 |
| 20260509045412 | 58 | 148 | 0.0 | 2.0 | 0.00 | 0.00 | 0.00 | 82 | 1011.3 |
| 20260509045320 | 58 | 148 | 0.0 | 0.0 | 0.00 | 0.00 | 0.00 | 82 | 1011.3 |
| 20260509045228 | 58 | 148 | 0.0 | 0.0 | 0.00 | 0.00 | 0.00 | 82 | 1011.3 |
| 20260509045116 | 58 | 148 | 0.0 | 0.0 | 0.00 | 0.00 | 0.00 | 82 | 1011.3 |
| 20260509045051 | 58 | 148 | 0.0 | 0.0 | 0.00 | 0.00 | 0.00 | 82 | 1011.3 |
| 20260509044824 | 58 | 148 | 0.0 | 0.0 | 0.00 | 0.00 | 0.00 | 82 | 1011.4 |
| 20260509044711 | 58 | 148 | 0.0 | 0.0 | 0.00 | 0.00 | 0.00 | 81 | 1011.5 |
| 20260509044620 | 58 | 148 | 0.0 | 0.0 | 0.00 | 0.00 | 0.00 | 81 | 1011.4 |
| 20260509044528 | 58 | 148 | 0.0 | 0.0 | 0.00 | 0.00 | 0.00 | 81 | 1011.4 |
| 20260509044415 | 58 | 148 | 0.0 | 0.0 | 0.00 | 0.00 | 0.00 | 81 | 1011.4 |
| 20260509044326 | 58 | 148 | 0.0 | 0.0 | 0.00 | 0.00 | 0.00 | 81 | 1011.4 |
| 20260509044213 | 58 | 148 | 0.0 | 0.0 | 0.00 | 0.00 | 0.00 | 81 | 1011.5 |
| 20260509044121 | 58 | 148 | 0.0 | 0.0 | 0.00 | 0.00 | 0.00 | 81 | 1011.5 |
| 20260509044029 | 58 | 148 | 0.0 | 0.0 | 0.00 | 0.00 | 0.00 | 81 | 1011.5 |
| 20260509043915 | 58 | 148 | 0.0 | 0.0 | 0.00 | 0.00 | 0.00 | 81 | 1011.6 |
| 20260509043828 | 58 | 148 | 0.0 | 0.0 | 0.00 | 0.00 | 0.00 | 81 | 1011.6 |
| 20260509043715 | 58 | 148 | 0.0 | 0.0 | 0.00 | 0.00 | 0.00 | 81 | 1011.6 |
| 20260509043642 | 58 | 148 | 0.0 | 0.0 | 0.00 | 0.00 | 0.00 | 81 | 1011.6 |
| 20260509043552 | 58 | 148 | 0.0 | 0.0 | 0.00 | 0.00 | 0.00 | 81 | 1011.6 |
| 20260509043325 | 58 | 148 | 0.0 | 0.0 | 0.00 | 0.00 | 0.00 | 81 | 1011.7 |
| 20260509043217 | 58 | 148 | 0.0 | 0.0 | 0.00 | 0.00 | 0.00 | 81 | 1011.7 |
| 20260509043125 | 58 | 148 | 0.0 | 0.0 | 0.00 | 0.00 | 0.00 | 81 | 1011.7 |
| 20260509043013 | 59 | 148 | 0.0 | 0.0 | 0.00 | 0.00 | 0.00 | 81 | 1011.6 |
| 20260509042941 | 59 | 148 | 0.0 | 0.0 | 0.00 | 0.00 | 0.00 | 81 | 1011.5 |
| 20260509042826 | 59 | 148 | 0.0 | 0.0 | 0.00 | 0.00 | 0.00 | 81 | 1011.5 |
| 20260509042713 | 59 | 148 | 0.0 | 0.0 | 0.00 | 0.00 | 0.00 | 81 | 1011.6 |
| 20260509042625 | 59 | 148 | 0.0 | 0.0 | 0.00 | 0.00 | 0.00 | 81 | 1011.6 |
| 20260509042512 | 59 | 148 | 0.0 | 0.0 | 0.00 | 0.00 | 0.00 | 81 | 1011.5 |
| 20260509042420 | 59 | 148 | 0.0 | 0.0 | 0.00 | 0.00 | 0.00 | 81 | 1011.5 |
| 20260509042327 | 59 | 148 | 0.0 | 0.0 | 0.00 | 0.00 | 0.00 | 81 | 1011.5 |
| 20260509042214 | 59 | 148 | 0.0 | 0.0 | 0.00 | 0.00 | 0.00 | 81 | 1011.5 |
| 20260509042056 | 59 | 148 | 0.0 | 0.0 | 0.00 | 0.00 | 0.00 | 81 | 1011.5 |
| 20260509041831 | 59 | 148 | 0.0 | 0.0 | 0.00 | 0.00 | 0.00 | 81 | 1011.5 |
| 20260509041720 | 59 | 148 | 0.0 | 0.0 | 0.00 | 0.00 | 0.00 | 81 | 1011.6 |
| 20260509041611 | 59 | 148 | 0.0 | 1.0 | 0.00 | 0.00 | 0.00 | 81 | 1011.5 |
| 20260509041518 | 59 | 148 | 0.0 | 2.0 | 0.00 | 0.00 | 0.00 | 80 | 1011.5 |
| 20260509041445 | 59 | 148 | 0.0 | 2.0 | 0.00 | 0.00 | 0.00 | 80 | 1011.5 |
| 20260509041352 | 59 | 148 | 0.0 | 2.0 | 0.00 | 0.00 | 0.00 | 80 | 1011.5 |
| 20260509041217 | 59 | 148 | 0.0 | 2.0 | 0.00 | 0.00 | 0.00 | 80 | 1011.4 |
| 20260509041125 | 59 | 148 | 0.0 | 2.0 | 0.00 | 0.00 | 0.00 | 80 | 1011.4 |
| 20260509041033 | 59 | 148 | 0.0 | 2.0 | 0.00 | 0.00 | 0.00 | 80 | 1011.6 |
| 20260509040919 | 59 | 148 | 0.0 | 3.0 | 0.00 | 0.00 | 0.00 | 80 | 1011.6 |
| 20260509040850 | 59 | 148 | 0.0 | 4.0 | 0.00 | 0.00 | 0.00 | 80 | 1011.6 |
| 20260509040716 | 59 | 148 | 1.0 | 4.0 | 0.00 | 0.00 | 0.00 | 80 | 1011.7 |
| 20260509040623 | 59 | 148 | 1.0 | 4.0 | 0.00 | 0.00 | 0.00 | 80 | 1011.7 |
| 20260509040554 | 59 | 148 | 2.0 | 4.0 | 0.00 | 0.00 | 0.00 | 80 | 1011.6 |
| 20260509040312 | 59 | 148 | 2.0 | 4.0 | 0.00 | 0.00 | 0.00 | 80 | 1011.7 |
| 20260509040219 | 59 | 148 | 2.0 | 4.0 | 0.00 | 0.00 | 0.00 | 80 | 1011.7 |
| 20260509040127 | 59 | 148 | 1.0 | 4.0 | 0.00 | 0.00 | 0.00 | 80 | 1011.7 |
| 20260509040014 | 59 | 148 | 2.0 | 4.0 | 0.00 | 0.00 | 0.00 | 80 | 1011.6 |
| 20260509035923 | 59 | 146 | 2.0 | 4.0 | 0.00 | 0.00 | 0.00 | 80 | 1011.6 |
| 20260509035830 | 59 | 137 | 2.0 | 4.0 | 0.00 | 0.00 | 0.00 | 80 | 1011.7 |
| 20260509035721 | 59 | 145 | 2.0 | 4.0 | 0.00 | 0.00 | 0.00 | 80 | 1011.6 |
| 20260509035629 | 59 | 144 | 2.0 | 4.0 | 0.00 | 0.00 | 0.00 | 80 | 1011.6 |
| 20260509035517 | 59 | 133 | 3.0 | 4.0 | 0.00 | 0.00 | 0.00 | 80 | 1011.5 |
| 20260509035424 | 59 | 134 | 3.0 | 4.0 | 0.00 | 0.00 | 0.00 | 80 | 1011.5 |
| 20260509035312 | 59 | 130 | 3.0 | 4.0 | 0.00 | 0.00 | 0.00 | 80 | 1011.4 |
| 20260509035223 | 59 | 126 | 3.0 | 4.0 | 0.00 | 0.00 | 0.00 | 80 | 1011.4 |
| 20260509035130 | 59 | 128 | 3.0 | 3.0 | 0.00 | 0.00 | 0.00 | 80 | 1011.5 |
| 20260509035101 | 59 | 129 | 2.0 | 3.0 | 0.00 | 0.00 | 0.00 | 80 | 1011.5 |
| 20260509034834 | 59 | 132 | 1.0 | 3.0 | 0.00 | 0.00 | 0.00 | 80 | 1011.7 |
| 20260509034720 | 59 | 134 | 1.0 | 2.0 | 0.00 | 0.00 | 0.00 | 80 | 1011.6 |
| 20260509034612 | 59 | 171 | 0.0 | 1.0 | 0.00 | 0.00 | 0.00 | 79 | 1011.8 |
| 20260509034519 | 59 | 171 | 0.0 | 1.0 | 0.00 | 0.00 | 0.00 | 79 | 1011.8 |
| 20260509034427 | 59 | 171 | 0.0 | 0.0 | 0.00 | 0.00 | 0.00 | 79 | 1011.8 |
| 20260509034315 | 59 | 171 | 0.0 | 0.0 | 0.00 | 0.00 | 0.00 | 79 | 1011.8 |
| 20260509034221 | 59 | 171 | 0.0 | 0.0 | 0.00 | 0.00 | 0.00 | 79 | 1011.8 |
| 20260509034148 | 59 | 171 | 0.0 | 0.0 | 0.00 | 0.00 | 0.00 | 79 | 1011.8 |
| 20260509034020 | 59 | 171 | 0.0 | 0.0 | 0.00 | 0.00 | 0.00 | 79 | 1011.8 |
| 20260509033946 | 59 | 171 | 0.0 | 0.0 | 0.00 | 0.00 | 0.00 | 79 | 1011.8 |
| 20260509033813 | 59 | 171 | 0.0 | 1.0 | 0.00 | 0.00 | 0.00 | 79 | 1011.8 |
| 20260509033720 | 59 | 171 | 0.0 | 1.0 | 0.00 | 0.00 | 0.00 | 79 | 1011.8 |
| 20260509033628 | 59 | 171 | 0.0 | 1.0 | 0.00 | 0.00 | 0.00 | 79 | 1011.8 |
| 20260509033601 | 59 | 171 | 0.0 | 1.0 | 0.00 | 0.00 | 0.00 | 78 | 1011.7 |
| 20260509033315 | 60 | 171 | 0.0 | 1.0 | 0.00 | 0.00 | 0.00 | 78 | 1011.9 |
| 20260509033223 | 60 | 171 | 0.0 | 1.0 | 0.00 | 0.00 | 0.00 | 78 | 1011.9 |
| 20260509033130 | 60 | 171 | 0.0 | 1.0 | 0.00 | 0.00 | 0.00 | 78 | 1011.9 |
| 20260509033017 | 60 | 171 | 0.0 | 1.0 | 0.00 | 0.00 | 0.00 | 78 | 1011.9 |
| 20260509032929 | 60 | 171 | 0.0 | 2.0 | 0.00 | 0.00 | 0.00 | 78 | 1011.9 |
| 20260509032816 | 60 | 171 | 0.0 | 3.0 | 0.00 | 0.00 | 0.00 | 77 | 1011.9 |
| 20260509032722 | 60 | 171 | 0.0 | 3.0 | 0.00 | 0.00 | 0.00 | 77 | 1011.9 |
| 20260509032629 | 60 | 171 | 0.0 | 3.0 | 0.00 | 0.00 | 0.00 | 77 | 1011.8 |
| 20260509032518 | 60 | 171 | 0.0 | 3.0 | 0.00 | 0.00 | 0.00 | 77 | 1011.9 |
| 20260509032445 | 60 | 171 | 0.0 | 3.0 | 0.00 | 0.00 | 0.00 | 77 | 1011.9 |
| 20260509032315 | 60 | 171 | 0.0 | 3.0 | 0.00 | 0.00 | 0.00 | 77 | 1011.9 |
| 20260509032221 | 60 | 171 | 1.0 | 3.0 | 0.00 | 0.00 | 0.00 | 77 | 1011.9 |
| 20260509032128 | 60 | 171 | 1.0 | 3.0 | 0.00 | 0.00 | 0.00 | 77 | 1011.9 |
| 20260509032057 | 60 | 171 | 1.0 | 3.0 | 0.00 | 0.00 | 0.00 | 77 | 1011.9 |
| 20260509031815 | 60 | 182 | 1.0 | 3.0 | 0.00 | 0.00 | 0.00 | 77 | 1012.0 |
| 20260509031723 | 60 | 182 | 1.0 | 3.0 | 0.00 | 0.00 | 0.00 | 77 | 1012.0 |
| 20260509031630 | 60 | 182 | 1.0 | 3.0 | 0.00 | 0.00 | 0.00 | 77 | 1012.1 |
| 20260509031518 | 60 | 167 | 2.0 | 3.0 | 0.00 | 0.00 | 0.00 | 76 | 1012.1 |
| 20260509031426 | 60 | 184 | 2.0 | 3.0 | 0.00 | 0.00 | 0.00 | 76 | 1012.1 |
| 20260509031333 | 60 | 187 | 1.0 | 2.0 | 0.00 | 0.00 | 0.00 | 76 | 1012.0 |
| 20260509031222 | 60 | 189 | 1.0 | 3.0 | 0.00 | 0.00 | 0.00 | 76 | 1012.0 |
| 20260509031129 | 60 | 194 | 1.0 | 3.0 | 0.00 | 0.00 | 0.00 | 76 | 1012.1 |
| 20260509031016 | 60 | 158 | 1.0 | 3.0 | 0.00 | 0.00 | 0.00 | 76 | 1012.1 |
| 20260509030923 | 60 | 187 | 1.0 | 3.0 | 0.00 | 0.00 | 0.00 | 76 | 1012.1 |
| 20260509030831 | 60 | 187 | 0.0 | 3.0 | 0.00 | 0.00 | 0.00 | 76 | 1012.1 |
| 20260509030717 | 61 | 187 | 1.0 | 3.0 | 0.00 | 0.00 | 0.00 | 76 | 1012.2 |
| 20260509030630 | 61 | 187 | 1.0 | 3.0 | 0.00 | 0.00 | 0.00 | 76 | 1012.2 |
| 20260509030600 | 61 | 187 | 2.0 | 3.0 | 0.00 | 0.00 | 0.00 | 76 | 1012.1 |
| 20260509030314 | 61 | 186 | 1.0 | 3.0 | 0.00 | 0.00 | 0.00 | 76 | 1012.2 |
| 20260509030221 | 61 | 188 | 1.0 | 3.0 | 0.00 | 0.00 | 0.00 | 76 | 1012.2 |
| 20260509030113 | 61 | 184 | 1.0 | 3.0 | 0.00 | 0.00 | 0.00 | 75 | 1012.3 |
| 20260509030020 | 61 | 195 | 1.0 | 3.0 | 0.00 | 0.00 | 0.00 | 75 | 1012.3 |
| 20260509025928 | 61 | 195 | 1.0 | 3.0 | 0.00 | 0.00 | 0.00 | 75 | 1012.3 |
| 20260509025814 | 61 | 195 | 1.0 | 3.0 | 0.00 | 0.00 | 0.00 | 75 | 1012.2 |
| 20260509025722 | 61 | 195 | 2.0 | 3.0 | 0.00 | 0.00 | 0.00 | 75 | 1012.2 |
| 20260509025613 | 61 | 195 | 2.0 | 3.0 | 0.00 | 0.00 | 0.00 | 75 | 1012.2 |
| 20260509025520 | 61 | 186 | 1.0 | 3.0 | 0.00 | 0.00 | 0.00 | 75 | 1012.2 |
| 20260509025426 | 61 | 187 | 0.0 | 3.0 | 0.00 | 0.00 | 0.00 | 75 | 1012.2 |
| 20260509025333 | 61 | 150 | 0.0 | 3.0 | 0.00 | 0.00 | 0.00 | 75 | 1012.0 |
| 20260509025220 | 61 | 150 | 0.0 | 3.0 | 0.00 | 0.00 | 0.00 | 74 | 1012.0 |
| 20260509025128 | 61 | 150 | 1.0 | 3.0 | 0.00 | 0.00 | 0.00 | 74 | 1012.0 |
| 20260509025102 | 61 | 150 | 1.0 | 3.0 | 0.00 | 0.00 | 0.00 | 74 | 1011.9 |
| 20260509024815 | 61 | 150 | 1.0 | 3.0 | 0.00 | 0.00 | 0.00 | 74 | 1012.0 |
| 20260509024722 | 61 | 147 | 2.0 | 3.0 | 0.00 | 0.00 | 0.00 | 74 | 1012.0 |
| 20260509024649 | 61 | 147 | 2.0 | 3.0 | 0.00 | 0.00 | 0.00 | 74 | 1012.0 |
| 20260509024517 | 61 | 143 | 2.0 | 3.0 | 0.00 | 0.00 | 0.00 | 74 | 1011.9 |
| 20260509024423 | 61 | 150 | 2.0 | 3.0 | 0.00 | 0.00 | 0.00 | 74 | 1011.9 |
| 20260509024314 | 62 | 150 | 2.0 | 3.0 | 0.00 | 0.00 | 0.00 | 74 | 1012.0 |
| 20260509024222 | 62 | 142 | 2.0 | 3.0 | 0.00 | 0.00 | 0.00 | 74 | 1012.0 |
| 20260509024130 | 62 | 124 | 1.0 | 3.0 | 0.00 | 0.00 | 0.00 | 74 | 1012.0 |
| 20260509024018 | 62 | 136 | 1.0 | 4.0 | 0.00 | 0.00 | 0.00 | 74 | 1012.0 |
| 20260509023926 | 62 | 150 | 1.0 | 4.0 | 0.00 | 0.00 | 0.00 | 74 | 1012.0 |
| 20260509023818 | 62 | 150 | 1.0 | 4.0 | 0.00 | 0.00 | 0.00 | 74 | 1012.0 |
| 20260509023746 | 62 | 150 | 1.0 | 4.0 | 0.00 | 0.00 | 0.00 | 74 | 1012.0 |
| 20260509023632 | 62 | 159 | 1.0 | 4.0 | 0.00 | 0.00 | 0.00 | 74 | 1011.9 |
| 20260509023601 | 62 | 196 | 1.0 | 4.0 | 0.00 | 0.00 | 0.00 | 74 | 1012.0 |
| 20260509023334 | 62 | 167 | 1.0 | 5.0 | 0.00 | 0.00 | 0.00 | 73 | 1012.0 |
| 20260509023224 | 62 | 168 | 1.0 | 5.0 | 0.00 | 0.00 | 0.00 | 73 | 1012.0 |
| 20260509023112 | 62 | 191 | 1.0 | 5.0 | 0.00 | 0.00 | 0.00 | 73 | 1012.1 |
| 20260509023019 | 62 | 184 | 2.0 | 5.0 | 0.00 | 0.00 | 0.00 | 73 | 1012.2 |
| 20260509022925 | 62 | 148 | 2.0 | 6.0 | 0.00 | 0.00 | 0.00 | 73 | 1012.2 |
| 20260509022814 | 62 | 200 | 2.0 | 6.0 | 0.00 | 0.00 | 0.00 | 73 | 1012.1 |
| 20260509022722 | 62 | 201 | 2.0 | 6.0 | 0.00 | 0.00 | 0.00 | 73 | 1012.1 |
| 20260509022614 | 62 | 190 | 3.0 | 6.0 | 0.00 | 0.00 | 0.00 | 73 | 1012.2 |
| 20260509022522 | 62 | 209 | 3.0 | 6.0 | 0.00 | 0.00 | 0.00 | 73 | 1012.2 |
| 20260509022429 | 62 | 207 | 3.0 | 7.0 | 0.00 | 0.00 | 0.00 | 73 | 1012.1 |
| 20260509022317 | 62 | 183 | 3.0 | 7.0 | 0.00 | 0.00 | 0.00 | 73 | 1012.1 |
| 20260509022245 | 62 | 201 | 4.0 | 7.0 | 0.00 | 0.00 | 0.00 | 73 | 1012.1 |
| 20260509022116 | 62 | 188 | 4.0 | 7.0 | 0.00 | 0.00 | 0.00 | 73 | 1012.0 |
| 20260509022047 | 62 | 194 | 3.0 | 9.0 | 0.00 | 0.00 | 0.00 | 73 | 1012.0 |
| 20260509021820 | 62 | 176 | 3.0 | 9.0 | 0.00 | 0.00 | 0.00 | 73 | 1012.1 |
| 20260509021727 | 62 | 159 | 3.0 | 9.0 | 0.00 | 0.00 | 0.00 | 73 | 1012.1 |
| 20260509021615 | 62 | 151 | 5.0 | 9.0 | 0.00 | 0.00 | 0.00 | 73 | 1012.1 |
| 20260509021525 | 62 | 205 | 5.0 | 9.0 | 0.00 | 0.00 | 0.00 | 73 | 1012.1 |
| 20260509021433 | 63 | 190 | 4.0 | 9.0 | 0.00 | 0.00 | 0.00 | 72 | 1012.1 |
| 20260509021320 | 62 | 168 | 4.0 | 9.0 | 0.00 | 0.00 | 0.00 | 72 | 1012.1 |
| 20260509021227 | 63 | 211 | 4.0 | 9.0 | 0.00 | 0.00 | 0.00 | 72 | 1012.1 |
| 20260509021115 | 63 | 187 | 5.0 | 9.0 | 0.00 | 0.00 | 0.00 | 72 | 1012.0 |
| 20260509021023 | 63 | 175 | 4.0 | 9.0 | 0.00 | 0.00 | 0.00 | 72 | 1012.0 |
| 20260509020914 | 63 | 183 | 3.0 | 7.0 | 0.00 | 0.00 | 0.00 | 72 | 1012.1 |
| 20260509020822 | 63 | 214 | 3.0 | 7.0 | 0.00 | 0.00 | 0.00 | 72 | 1012.1 |
| 20260509020731 | 63 | 196 | 4.0 | 7.0 | 0.00 | 0.00 | 0.00 | 72 | 1012.1 |
| 20260509020637 | 63 | 131 | 4.0 | 7.0 | 0.00 | 0.00 | 0.00 | 72 | 1012.0 |
| 20260509020611 | 63 | 191 | 4.0 | 7.0 | 0.00 | 0.00 | 0.00 | 72 | 1011.9 |
| 20260509020325 | 63 | 178 | 4.0 | 7.0 | 0.00 | 0.00 | 0.00 | 72 | 1012.0 |
| 20260509020213 | 63 | 190 | 3.0 | 7.0 | 0.00 | 0.00 | 0.00 | 72 | 1012.0 |
| 20260509020120 | 63 | 216 | 2.0 | 6.0 | 0.00 | 0.00 | 0.00 | 72 | 1011.9 |
| 20260509020028 | 63 | 144 | 2.0 | 6.0 | 0.00 | 0.00 | 0.00 | 72 | 1011.9 |
| 20260509015915 | 63 | 192 | 2.0 | 6.0 | 0.00 | 0.00 | 0.00 | 72 | 1011.9 |
| 20260509015827 | 63 | 198 | 2.0 | 6.0 | 0.00 | 0.00 | 0.00 | 72 | 1011.9 |
| 20260509015715 | 63 | 195 | 2.0 | 6.0 | 0.00 | 0.00 | 0.00 | 72 | 1011.9 |
| 20260509015623 | 63 | 186 | 3.0 | 6.0 | 0.00 | 0.00 | 0.00 | 72 | 1011.9 |
| 20260509015531 | 63 | 145 | 3.0 | 6.0 | 0.00 | 0.00 | 0.00 | 72 | 1011.9 |
| 20260509015419 | 63 | 196 | 4.0 | 6.0 | 0.00 | 0.00 | 0.00 | 71 | 1011.9 |
| 20260509015330 | 63 | 198 | 4.0 | 6.0 | 0.00 | 0.00 | 0.00 | 71 | 1011.9 |
| 20260509015237 | 63 | 193 | 4.0 | 6.0 | 0.00 | 0.00 | 0.00 | 71 | 1012.0 |
| 20260509015123 | 63 | 197 | 3.0 | 6.0 | 0.00 | 0.00 | 0.00 | 71 | 1012.0 |
| 20260509015053 | 63 | 173 | 2.0 | 6.0 | 0.00 | 0.00 | 0.00 | 71 | 1011.9 |
| 20260509014827 | 63 | 198 | 2.0 | 6.0 | 0.00 | 0.00 | 0.00 | 71 | 1012.0 |
| 20260509014739 | 63 | 191 | 3.0 | 6.0 | 0.00 | 0.00 | 0.00 | 71 | 1011.8 |
| 20260509014626 | 63 | 234 | 3.0 | 6.0 | 0.00 | 0.00 | 0.00 | 71 | 1011.8 |
| 20260509014512 | 64 | 197 | 3.0 | 7.0 | 0.00 | 0.00 | 0.00 | 70 | 1012.0 |
| 20260509014420 | 64 | 196 | 3.0 | 7.0 | 0.00 | 0.00 | 0.00 | 70 | 1011.9 |
| 20260509014328 | 64 | 197 | 4.0 | 7.0 | 0.00 | 0.00 | 0.00 | 70 | 1011.9 |
| 20260509014215 | 64 | 184 | 3.0 | 7.0 | 0.00 | 0.00 | 0.00 | 70 | 1011.9 |
| 20260509014127 | 64 | 195 | 3.0 | 7.0 | 0.00 | 0.00 | 0.00 | 70 | 1011.9 |
| 20260509014015 | 64 | 199 | 4.0 | 7.0 | 0.00 | 0.00 | 0.00 | 70 | 1012.0 |
| 20260509013923 | 64 | 190 | 4.0 | 7.0 | 0.00 | 0.00 | 0.00 | 70 | 1012.0 |
| 20260509013830 | 64 | 168 | 5.0 | 7.0 | 0.00 | 0.00 | 0.00 | 70 | 1011.8 |
| 20260509013719 | 64 | 178 | 4.0 | 7.0 | 0.00 | 0.00 | 0.00 | 70 | 1011.8 |
| 20260509013630 | 64 | 206 | 3.0 | 7.0 | 0.00 | 0.00 | 0.00 | 70 | 1011.8 |
| 20260509013600 | 64 | 180 | 3.0 | 7.0 | 0.00 | 0.00 | 0.00 | 70 | 1011.8 |
| 20260509013314 | 64 | 200 | 4.0 | 7.0 | 0.00 | 0.00 | 0.00 | 69 | 1011.8 |
| 20260509013222 | 64 | 186 | 4.0 | 7.0 | 0.00 | 0.00 | 0.00 | 70 | 1011.8 |
| 20260509013113 | 64 | 190 | 3.0 | 6.0 | 0.00 | 0.00 | 0.00 | 69 | 1011.8 |
| 20260509013021 | 64 | 200 | 3.0 | 7.0 | 0.00 | 0.00 | 0.00 | 69 | 1011.8 |
| 20260509012927 | 64 | 181 | 3.0 | 7.0 | 0.00 | 0.00 | 0.00 | 69 | 1011.8 |
| 20260509012834 | 64 | 188 | 4.0 | 7.0 | 0.00 | 0.00 | 0.00 | 69 | 1011.8 |
| 20260509012720 | 64 | 205 | 4.0 | 7.0 | 0.00 | 0.00 | 0.00 | 69 | 1011.8 |
| 20260509012628 | 64 | 173 | 3.0 | 7.0 | 0.00 | 0.00 | 0.00 | 69 | 1011.8 |
| 20260509012520 | 64 | 182 | 3.0 | 7.0 | 0.00 | 0.00 | 0.00 | 69 | 1011.8 |
| 20260509012447 | 64 | 178 | 3.0 | 7.0 | 0.00 | 0.00 | 0.00 | 69 | 1011.8 |
| 20260509012311 | 64 | 195 | 4.0 | 7.0 | 0.00 | 0.00 | 0.00 | 69 | 1011.8 |
| 20260509012218 | 64 | 216 | 4.0 | 7.0 | 0.00 | 0.00 | 0.00 | 69 | 1011.7 |
| 20260509012146 | 64 | 176 | 5.0 | 7.0 | 0.00 | 0.00 | 0.00 | 69 | 1011.7 |
| 20260509012116 | 64 | 178 | 4.0 | 7.0 | 0.00 | 0.00 | 0.00 | 69 | 1011.7 |
| 20260509011814 | 65 | 192 | 3.0 | 7.0 | 0.00 | 0.00 | 0.00 | 69 | 1011.8 |
| 20260509011722 | 65 | 188 | 3.0 | 7.0 | 0.00 | 0.00 | 0.00 | 68 | 1011.8 |
| 20260509011630 | 65 | 184 | 4.0 | 7.0 | 0.00 | 0.00 | 0.00 | 68 | 1011.8 |
| 20260509011539 | 65 | 191 | 5.0 | 7.0 | 0.00 | 0.00 | 0.00 | 68 | 1011.8 |
| 20260509011425 | 65 | 207 | 5.0 | 7.0 | 0.00 | 0.00 | 0.00 | 68 | 1011.8 |
| 20260509011317 | 65 | 178 | 4.0 | 10.0 | 0.00 | 0.00 | 0.00 | 68 | 1011.7 |
| 20260509011225 | 65 | 238 | 3.0 | 10.0 | 0.00 | 0.00 | 0.00 | 68 | 1011.7 |
| 20260509011112 | 65 | 205 | 3.0 | 10.0 | 0.00 | 0.00 | 0.00 | 68 | 1011.7 |
| 20260509011039 | 65 | 146 | 3.0 | 12.0 | 0.00 | 0.00 | 0.00 | 68 | 1011.8 |
| 20260509010926 | 65 | 198 | 4.0 | 12.0 | 0.00 | 0.00 | 0.00 | 68 | 1011.8 |
| 20260509010814 | 65 | 174 | 5.0 | 12.0 | 0.00 | 0.00 | 0.00 | 68 | 1011.6 |
| 20260509010741 | 65 | 186 | 5.0 | 12.0 | 0.00 | 0.00 | 0.00 | 67 | 1011.6 |
| 20260509010630 | 65 | 211 | 6.0 | 12.0 | 0.00 | 0.00 | 0.00 | 68 | 1011.6 |
| 20260509010600 | 65 | 196 | 6.0 | 12.0 | 0.00 | 0.00 | 0.00 | 67 | 1011.7 |
| 20260509010333 | 65 | 186 | 6.0 | 12.0 | 0.00 | 0.00 | 0.00 | 67 | 1011.6 |
| 20260509010241 | 65 | 180 | 6.0 | 12.0 | 0.00 | 0.00 | 0.00 | 67 | 1011.7 |
| 20260509010127 | 65 | 205 | 6.0 | 12.0 | 0.00 | 0.00 | 0.00 | 67 | 1011.7 |
| 20260509010017 | 65 | 175 | 6.0 | 11.0 | 0.00 | 0.00 | 0.00 | 67 | 1011.6 |
| 20260509005924 | 65 | 217 | 7.0 | 11.0 | 0.00 | 0.00 | 0.00 | 67 | 1011.6 |
| 20260509005831 | 65 | 171 | 8.0 | 11.0 | 0.00 | 0.00 | 0.00 | 67 | 1011.6 |
| 20260509005719 | 65 | 205 | 7.0 | 11.0 | 0.00 | 0.00 | 0.00 | 67 | 1011.6 |
| 20260509005648 | 65 | 184 | 7.0 | 11.0 | 0.00 | 0.00 | 0.00 | 66 | 1011.6 |
| 20260509005514 | 65 | 186 | 5.0 | 11.0 | 0.00 | 0.00 | 0.00 | 67 | 1011.5 |
| 20260509005426 | 65 | 170 | 5.0 | 11.0 | 0.00 | 0.00 | 0.00 | 66 | 1011.5 |
| 20260509005314 | 65 | 194 | 5.0 | 11.0 | 0.00 | 0.00 | 0.00 | 66 | 1011.5 |
| 20260509005221 | 65 | 177 | 6.0 | 11.0 | 0.00 | 0.00 | 0.00 | 66 | 1011.5 |
| 20260509005129 | 66 | 184 | 6.0 | 11.0 | 0.00 | 0.00 | 0.00 | 66 | 1011.6 |
| 20260509005059 | 65 | 178 | 6.0 | 11.0 | 0.00 | 0.00 | 0.00 | 66 | 1011.6 |
| 20260509004817 | 66 | 239 | 6.0 | 12.0 | 0.00 | 0.00 | 0.00 | 66 | 1011.6 |
| 20260509004745 | 66 | 192 | 6.0 | 12.0 | 0.00 | 0.00 | 0.00 | 66 | 1011.6 |
| 20260509004630 | 66 | 176 | 6.0 | 12.0 | 0.00 | 0.00 | 0.00 | 66 | 1011.7 |
| 20260509004538 | 66 | 194 | 7.0 | 12.0 | 0.00 | 0.00 | 0.00 | 66 | 1011.8 |
| 20260509004425 | 66 | 190 | 8.0 | 12.0 | 0.00 | 0.00 | 0.00 | 66 | 1011.8 |
| 20260509004312 | 66 | 177 | 8.0 | 12.0 | 0.00 | 0.00 | 0.00 | 66 | 1011.7 |
| 20260509004244 | 66 | 207 | 8.0 | 12.0 | 0.00 | 0.00 | 0.00 | 66 | 1011.7 |
| 20260509004129 | 66 | 199 | 8.0 | 12.0 | 0.00 | 0.00 | 0.00 | 66 | 1011.6 |
| 20260509004016 | 66 | 196 | 8.0 | 12.0 | 0.00 | 0.00 | 0.00 | 66 | 1011.6 |
| 20260509003924 | 66 | 187 | 7.0 | 12.0 | 0.00 | 0.00 | 0.00 | 66 | 1011.6 |
| 20260509003851 | 66 | 242 | 7.0 | 12.0 | 0.00 | 0.00 | 0.00 | 65 | 1011.4 |
| 20260509003738 | 66 | 185 | 7.0 | 12.0 | 0.00 | 0.00 | 0.00 | 65 | 1011.5 |
| 20260509003625 | 66 | 210 | 7.0 | 12.0 | 0.00 | 0.00 | 0.00 | 65 | 1011.5 |
| 20260509003600 | 66 | 173 | 7.0 | 10.0 | 0.00 | 0.00 | 0.00 | 65 | 1011.6 |
| 20260509003332 | 66 | 198 | 6.0 | 12.0 | 0.00 | 0.00 | 0.00 | 65 | 1011.6 |
| 20260509003239 | 66 | 197 | 5.0 | 12.0 | 0.00 | 0.00 | 0.00 | 65 | 1011.6 |
| 20260509003126 | 67 | 221 | 5.0 | 12.0 | 0.00 | 0.00 | 0.00 | 65 | 1011.6 |
| 20260509003012 | 67 | 198 | 5.0 | 12.0 | 0.00 | 0.00 | 0.00 | 65 | 1011.7 |
| 20260509002924 | 67 | 138 | 5.0 | 12.0 | 0.00 | 0.00 | 0.00 | 65 | 1011.7 |
| 20260509002852 | 67 | 190 | 5.0 | 12.0 | 0.00 | 0.00 | 0.00 | 65 | 1011.6 |
| 20260509002717 | 67 | 137 | 5.0 | 12.0 | 0.00 | 0.00 | 0.00 | 65 | 1011.6 |
| 20260509002625 | 67 | 195 | 6.0 | 12.0 | 0.00 | 0.00 | 0.00 | 65 | 1011.6 |
| 20260509002513 | 67 | 200 | 7.0 | 12.0 | 0.00 | 0.00 | 0.00 | 65 | 1011.5 |
| 20260509002440 | 67 | 183 | 6.0 | 11.0 | 0.00 | 0.00 | 0.00 | 65 | 1011.6 |
| 20260509002347 | 67 | 200 | 6.0 | 11.0 | 0.00 | 0.00 | 0.00 | 65 | 1011.6 |
| 20260509002218 | 67 | 180 | 5.0 | 11.0 | 0.00 | 0.00 | 0.00 | 64 | 1011.6 |
| 20260509002126 | 67 | 212 | 6.0 | 11.0 | 0.00 | 0.00 | 0.00 | 64 | 1011.6 |